M I D A S
Marine Information and Data Acquisition System
Tripno 1203 of the Zeeleeuw from 2007-01-22 08:14:11 to 2007-01-22 15:55:20
Back to CruiseResearch ActivitiesStationsMapUnderway DataData graphs

EquipmentUnitsComment
TimeDGPSUTC
LatitudeDGPSDM.mWGS84
LongitudeDGPSDM.mWGS84
TemperatureSBE03/SBE38deg celciusITS90
ConductivitySBE21S/mITS90
SalinitySBE21 Practical Salinity Units
ChlorophylAChelsea fluorimeterg/lCalibrated in Aceton
Missing or incorrect values are displayed as -999
Sea surface data collected by the RV Zeeleeuw from 2007-01-22 07:31:52 to 2007-01-22 16:03:59
                                                                                    Next 1000 lines
Time Latitude Longitude Temperature Conductivity Salinity ChlorophylA
2007-01-22 07:32:02 51°13.62 2°56.042 15.1674 0.067251 0.361661 -2.871232
2007-01-22 07:32:07 51°13.62 2°56.043 15.1642 0.067251 0.361661 -2.871232
2007-01-22 07:32:12 51°13.62 2°56.043 15.1605 0.067148 0.361091 -2.871232
2007-01-22 07:32:17 51°13.62 2°56.043 15.1577 0.067148 0.361091 -2.871232
2007-01-22 07:32:22 51°13.62 2°56.043 15.1556 0.067251 0.361668 -2.871232
2007-01-22 07:32:27 51°13.62 2°56.043 15.1591 0.067148 0.361105 -2.871232
2007-01-22 07:32:32 51°13.62 2°56.043 15.1589 0.067251 0.361675 -2.871232
2007-01-22 07:32:37 51°13.619 2°56.043 15.161 0.067251 0.361675 -2.871232
2007-01-22 07:32:42 51°13.619 2°56.043 15.1602 0.067148 0.361105 -2.871232
2007-01-22 07:32:47 51°13.619 2°56.043 15.1628 0.067251 0.361682 -2.871232
2007-01-22 07:32:52 51°13.619 2°56.043 15.1577 0.067148 0.361111 -2.871232
2007-01-22 07:32:57 51°13.619 2°56.043 15.1608 0.067148 0.361111 -2.871232
2007-01-22 07:33:02 51°13.62 2°56.043 15.1579 0.067148 0.361118 -2.871232
2007-01-22 07:33:07 51°13.619 2°56.043 15.1524 0.067148 0.361118 -2.871232
2007-01-22 07:33:12 51°13.619 2°56.043 15.1523 0.067148 0.361118 -2.871232
2007-01-22 07:33:17 51°13.619 2°56.043 15.1495 0.067148 0.361118 -2.871232
2007-01-22 07:33:22 51°13.619 2°56.043 15.1508 0.067148 0.361125 -2.871232
2007-01-22 07:33:27 51°13.619 2°56.043 15.154 0.067148 0.361125 -2.871232
2007-01-22 07:33:32 51°13.62 2°56.043 15.1595 0.067148 0.361132 -2.871232
2007-01-22 07:33:37 51°13.62 2°56.043 15.1645 0.067148 0.361132 -2.871232
2007-01-22 07:33:42 51°13.62 2°56.043 15.165 0.067148 0.361132 -2.871232
2007-01-22 07:33:47 51°13.62 2°56.042 15.1676 0.067148 0.361139 -2.871232
2007-01-22 07:33:52 51°13.62 2°56.042 15.1649 0.067148 0.361139 -2.871232
2007-01-22 07:33:57 51°13.62 2°56.042 15.164 0.067251 0.361717 -2.871232
2007-01-22 07:34:02 51°13.62 2°56.042 15.1638 0.067251 0.361717 -2.871232
2007-01-22 07:34:07 51°13.62 2°56.042 15.1637 0.067251 0.361717 -2.871232
2007-01-22 07:34:12 51°13.62 2°56.042 15.1642 0.067148 0.361146 -2.871232
2007-01-22 07:34:17 51°13.62 2°56.042 15.1659 0.067148 0.361153 -2.871232
2007-01-22 07:34:22 51°13.62 2°56.042 15.1679 0.067148 0.361153 -2.871232
2007-01-22 07:34:27 51°13.62 2°56.042 15.1701 0.067251 0.361731 -2.871232
2007-01-22 07:34:32 51°13.62 2°56.042 15.1705 0.067148 0.36116 -2.871232
2007-01-22 07:34:37 51°13.62 2°56.042 15.1691 0.067148 0.36116 -2.871232
2007-01-22 07:34:42 51°13.62 2°56.042 15.1672 0.067148 0.36116 -2.871232
2007-01-22 07:34:47 51°13.62 2°56.042 15.1693 0.067148 0.361167 -2.871232
2007-01-22 07:34:52 51°13.62 2°56.042 15.1685 0.067148 0.361167 -2.871232
2007-01-22 07:34:57 51°13.62 2°56.042 15.1676 0.067148 0.361174 -2.871232
2007-01-22 07:35:02 51°13.62 2°56.042 15.1683 0.067148 0.361174 -2.871232
2007-01-22 07:35:07 51°13.62 2°56.042 15.1688 0.067148 0.361174 -2.871232
2007-01-22 07:35:12 51°13.62 2°56.042 15.1689 0.067251 0.361752 -2.871232
2007-01-22 07:35:17 51°13.62 2°56.042 15.1686 0.067148 0.361181 -2.871232
2007-01-22 07:35:22 51°13.62 2°56.042 15.17 0.067251 0.361752 -2.871232
2007-01-22 07:35:27 51°13.62 2°56.042 15.1694 0.067148 0.361188 -2.871232
2007-01-22 07:35:32 51°13.62 2°56.042 15.1708 0.067148 0.361188 -2.871232
2007-01-22 07:35:37 51°13.62 2°56.042 15.1711 0.067148 0.361188 -2.871232
2007-01-22 07:35:42 51°13.62 2°56.042 15.1724 0.067148 0.361195 -2.871232
2007-01-22 07:35:47 51°13.62 2°56.042 15.1734 0.067148 0.361195 -2.871232
2007-01-22 07:35:52 51°13.62 2°56.042 15.1735 0.067148 0.361195 -2.871232
2007-01-22 07:35:57 51°13.62 2°56.042 15.1744 0.067148 0.361202 -2.871232
2007-01-22 07:36:02 51°13.62 2°56.043 15.1751 0.067148 0.361209 -2.871232
2007-01-22 07:36:07 51°13.62 2°56.043 15.1753 0.067148 0.361209 -2.871232
2007-01-22 07:36:12 51°13.62 2°56.043 15.1757 0.067148 0.361209 -2.871232
2007-01-22 07:36:17 51°13.62 2°56.043 15.1771 0.067148 0.361209 -2.871232
2007-01-22 07:36:22 51°13.62 2°56.043 15.1806 0.067045 0.360638 -2.871232
2007-01-22 07:36:27 51°13.62 2°56.043 15.18 0.067148 0.361216 -2.871232
2007-01-22 07:36:32 51°13.62 2°56.043 15.1794 0.067251 0.361794 -2.871232
2007-01-22 07:36:37 51°13.62 2°56.043 15.1784 0.067251 0.361794 -2.871232
2007-01-22 07:36:42 51°13.62 2°56.043 15.179 0.067148 0.361223 -2.871232
2007-01-22 07:36:47 51°13.62 2°56.043 15.1794 0.067148 0.361223 -2.871232
2007-01-22 07:36:52 51°13.62 2°56.043 15.1805 0.067148 0.36123 -2.871232
2007-01-22 07:36:57 51°13.62 2°56.043 15.1804 0.067148 0.36123 -2.871232
2007-01-22 07:37:02 51°13.62 2°56.043 15.181 0.067148 0.361237 -2.871232
2007-01-22 07:37:07 51°13.619 2°56.043 15.182 0.067148 0.361237 -2.871232
2007-01-22 07:37:12 51°13.62 2°56.043 15.1824 0.067148 0.361237 -2.871232
2007-01-22 07:37:17 51°13.62 2°56.043 15.183 0.067148 0.361244 -2.871232
2007-01-22 07:37:22 51°13.62 2°56.043 15.1832 0.067148 0.361244 -2.871232
2007-01-22 07:37:27 51°13.62 2°56.043 15.1824 0.067148 0.361244 -2.871232
2007-01-22 07:37:32 51°13.62 2°56.043 15.183 0.067148 0.361251 -2.871232
2007-01-22 07:37:37 51°13.62 2°56.043 15.182 0.067148 0.361251 -2.871232
2007-01-22 07:37:42 51°13.62 2°56.043 15.183 0.067148 0.361251 -2.871232
2007-01-22 07:37:47 51°13.62 2°56.043 15.1813 0.067148 0.361251 -2.871232
2007-01-22 07:37:52 51°13.62 2°56.043 15.1818 0.067148 0.361258 -2.871232
2007-01-22 07:37:57 51°13.62 2°56.043 15.1816 0.067045 0.360687 -2.871232
2007-01-22 07:38:02 51°13.62 2°56.043 15.1806 0.067251 0.361836 -2.871232
2007-01-22 07:38:07 51°13.62 2°56.043 15.1806 0.067251 0.361836 -2.871232
2007-01-22 07:38:12 51°13.619 2°56.043 15.1797 0.067148 0.361265 -2.871232
2007-01-22 07:38:17 51°13.619 2°56.043 15.178 0.067148 0.361272 -2.871232
2007-01-22 07:38:22 51°13.619 2°56.043 15.1768 0.067148 0.361272 -2.871232
2007-01-22 07:38:27 51°13.62 2°56.043 15.1748 0.067251 0.36185 -2.871232
2007-01-22 07:38:32 51°13.62 2°56.043 15.1736 0.067148 0.361279 -2.871232
2007-01-22 07:38:37 51°13.62 2°56.043 15.1702 0.067148 0.361279 -2.871232
2007-01-22 07:38:42 51°13.62 2°56.043 15.169 0.067148 0.361279 -2.871232
2007-01-22 07:38:47 51°13.62 2°56.043 15.1691 0.067148 0.361286 -2.871232
2007-01-22 07:38:52 51°13.62 2°56.043 15.1691 0.067148 0.361286 -2.871232
2007-01-22 07:38:57 51°13.619 2°56.043 15.1695 0.067148 0.361293 -2.871232
2007-01-22 07:39:02 51°13.619 2°56.043 15.1693 0.067148 0.361293 -2.871232
2007-01-22 07:39:07 51°13.619 2°56.043 15.1685 0.067148 0.361293 -2.871232
2007-01-22 07:39:12 51°13.619 2°56.043 15.1677 0.067148 0.361293 -2.871232
2007-01-22 07:39:17 51°13.619 2°56.043 15.1656 0.067251 0.361871 -2.871232
2007-01-22 07:39:22 51°13.619 2°56.043 15.1662 0.067148 0.3613 -2.871232
2007-01-22 07:39:27 51°13.62 2°56.043 15.1657 0.067148 0.3613 -2.871232
2007-01-22 07:39:32 51°13.62 2°56.043 15.167 0.067148 0.361307 -2.871232
2007-01-22 07:39:37 51°13.62 2°56.043 15.1677 0.067148 0.361307 -2.871232
2007-01-22 07:39:42 51°13.62 2°56.043 15.1668 0.067148 0.361307 -2.871232
2007-01-22 07:39:47 51°13.62 2°56.043 15.1673 0.067148 0.361307 -2.871232
2007-01-22 07:39:52 51°13.62 2°56.043 15.1651 0.067148 0.361314 -2.871232
2007-01-22 07:39:57 51°13.62 2°56.043 15.1629 0.067148 0.361314 -2.871232
2007-01-22 07:40:02 51°13.62 2°56.043 15.1656 0.067251 0.361892 -2.871232
2007-01-22 07:40:07 51°13.62 2°56.044 15.1676 0.067251 0.361892 -2.871232
2007-01-22 07:40:12 51°13.62 2°56.044 15.1688 0.067148 0.361321 -2.871232
2007-01-22 07:40:17 51°13.62 2°56.044 15.1711 0.067148 0.361327 -2.871232
2007-01-22 07:40:22 51°13.62 2°56.044 15.1735 0.067148 0.361327 -2.871232
2007-01-22 07:40:27 51°13.62 2°56.044 15.1747 0.067148 0.361334 -2.871232
2007-01-22 07:40:32 51°13.62 2°56.044 15.1751 0.067148 0.361334 -2.871232
2007-01-22 07:40:37 51°13.62 2°56.044 15.1768 0.067148 0.361334 -2.871232
2007-01-22 07:40:42 51°13.62 2°56.044 15.1775 0.067148 0.361334 -2.871232
2007-01-22 07:40:47 51°13.62 2°56.044 15.1782 0.067148 0.361341 -2.871232
2007-01-22 07:40:52 51°13.62 2°56.044 15.1788 0.067148 0.361341 -2.871232
2007-01-22 07:40:57 51°13.62 2°56.044 15.1778 0.067148 0.361341 -2.871232
2007-01-22 07:41:02 51°13.62 2°56.044 15.1789 0.067148 0.361348 -2.871232
2007-01-22 07:41:07 51°13.62 2°56.044 15.1801 0.067148 0.361348 -2.871232
2007-01-22 07:41:12 51°13.62 2°56.044 15.1817 0.067148 0.361348 -2.871232
2007-01-22 07:41:17 51°13.62 2°56.044 15.1797 0.067148 0.361355 -2.871232
2007-01-22 07:41:22 51°13.62 2°56.044 15.1801 0.067148 0.361355 -2.871232
2007-01-22 07:41:27 51°13.62 2°56.044 15.1778 0.067148 0.361362 -2.871232
2007-01-22 07:41:32 51°13.62 2°56.044 15.1778 0.067148 0.361362 -2.871232
2007-01-22 07:41:37 51°13.62 2°56.044 15.1747 0.067148 0.361362 -2.871232
2007-01-22 07:41:42 51°13.62 2°56.044 15.1737 0.067148 0.361362 -2.871232
2007-01-22 07:41:47 51°13.62 2°56.044 15.1728 0.067148 0.361369 -2.871232
2007-01-22 07:41:52 51°13.62 2°56.044 15.1737 0.067148 0.361369 -2.871232
2007-01-22 07:41:57 51°13.62 2°56.044 15.174 0.067148 0.361376 -2.871232
2007-01-22 07:42:02 51°13.62 2°56.044 15.175 0.067148 0.361376 -2.871232
2007-01-22 07:42:07 51°13.62 2°56.044 15.1766 0.067148 0.361376 -2.871232
2007-01-22 07:42:12 51°13.62 2°56.045 15.1754 0.067148 0.361376 -2.871232
2007-01-22 07:42:17 51°13.62 2°56.045 15.1737 0.067148 0.361383 -2.871232
2007-01-22 07:42:22 51°13.62 2°56.045 15.1754 0.067148 0.361383 -2.871232
2007-01-22 07:42:27 51°13.62 2°56.045 15.1737 0.067148 0.361383 -2.871232
2007-01-22 07:42:32 51°13.62 2°56.045 15.173 0.067148 0.36139 -2.871232
2007-01-22 07:42:37 51°13.62 2°56.045 15.172 0.067148 0.36139 -2.871232
2007-01-22 07:42:42 51°13.62 2°56.045 15.1712 0.067148 0.36139 -2.871232
2007-01-22 07:42:47 51°13.62 2°56.045 15.1725 0.067148 0.361397 -2.871232
2007-01-22 07:42:52 51°13.62 2°56.045 15.1728 0.067148 0.361397 -2.871232
2007-01-22 07:42:57 51°13.62 2°56.044 15.1737 0.067148 0.361404 -2.871232
2007-01-22 07:43:02 51°13.62 2°56.045 15.1733 0.067148 0.361404 -2.871232
2007-01-22 07:43:07 51°13.62 2°56.045 15.1738 0.067148 0.361404 -2.871232
2007-01-22 07:43:12 51°13.621 2°56.044 15.1738 0.067148 0.361404 -2.871232
2007-01-22 07:43:17 51°13.62 2°56.044 15.1731 0.067148 0.361411 -2.871232
2007-01-22 07:43:22 51°13.62 2°56.044 15.1759 0.067148 0.361411 -2.871232
2007-01-22 07:43:27 51°13.62 2°56.044 15.1776 0.067148 0.361411 -2.871232
2007-01-22 07:43:32 51°13.62 2°56.044 15.179 0.067045 0.360847 -2.871232
2007-01-22 07:43:37 51°13.62 2°56.044 15.1777 0.067045 0.360847 -2.871232
2007-01-22 07:43:42 51°13.62 2°56.044 15.1715 0.067148 0.361418 -2.871232
2007-01-22 07:43:47 51°13.62 2°56.044 15.1725 0.067148 0.361425 -2.871232
2007-01-22 07:43:52 51°13.62 2°56.044 15.1708 0.067148 0.361425 -2.871232
2007-01-22 07:43:57 51°13.62 2°56.044 15.1716 0.067148 0.361432 -2.871232
2007-01-22 07:44:02 51°13.62 2°56.044 15.1697 0.067148 0.361432 -2.871232
2007-01-22 07:44:07 51°13.62 2°56.044 15.1722 0.067148 0.361432 -2.871232
2007-01-22 07:44:12 51°13.62 2°56.044 15.1711 0.067148 0.361432 -2.871232
2007-01-22 07:44:17 51°13.62 2°56.044 15.1724 0.067148 0.361439 -2.871232
2007-01-22 07:44:22 51°13.62 2°56.044 15.1711 0.067148 0.361439 -2.871232
2007-01-22 07:44:27 51°13.62 2°56.044 15.1683 0.067148 0.361446 -2.871232
2007-01-22 07:44:32 51°13.621 2°56.044 15.1669 0.067148 0.361446 -2.871232
2007-01-22 07:44:37 51°13.621 2°56.044 15.1649 0.067148 0.361446 -2.871232
2007-01-22 07:44:42 51°13.621 2°56.044 15.1622 0.067148 0.361453 -2.871232
2007-01-22 07:44:47 51°13.621 2°56.044 15.1592 0.067148 0.361453 -2.871232
2007-01-22 07:44:52 51°13.621 2°56.044 15.1582 0.067148 0.36146 -2.871232
2007-01-22 07:44:57 51°13.621 2°56.044 15.1584 0.067148 0.36146 -2.871232
2007-01-22 07:45:02 51°13.62 2°56.044 15.1581 0.067148 0.36146 -2.871232
2007-01-22 07:45:07 51°13.62 2°56.044 15.1589 0.067148 0.36146 -2.871232
2007-01-22 07:45:12 51°13.62 2°56.044 15.1571 0.067148 0.361467 -2.871232
2007-01-22 07:45:17 51°13.62 2°56.044 15.1564 0.067148 0.361467 -2.871232
2007-01-22 07:45:22 51°13.62 2°56.044 15.1587 0.067148 0.361467 -2.871232
2007-01-22 07:45:27 51°13.62 2°56.044 15.1566 0.067148 0.361474 -2.871232
2007-01-22 07:45:32 51°13.62 2°56.044 15.1562 0.067045 0.360903 -2.871232
2007-01-22 07:45:37 51°13.62 2°56.044 15.1582 0.067045 0.360903 -2.871232
2007-01-22 07:45:42 51°13.62 2°56.044 15.1592 0.067148 0.361481 -2.871232
2007-01-22 07:45:47 51°13.62 2°56.044 15.1613 0.067148 0.361481 -2.871232
2007-01-22 07:45:52 51°13.62 2°56.044 15.1621 0.067148 0.361481 -2.871232
2007-01-22 07:45:57 51°13.62 2°56.044 15.164 0.067148 0.361488 -2.871232
2007-01-22 07:46:02 51°13.62 2°56.044 15.1634 0.067148 0.361488 -2.871232
2007-01-22 07:46:07 51°13.62 2°56.044 15.1637 0.067148 0.361488 -2.871232
2007-01-22 07:46:12 51°13.62 2°56.044 15.1645 0.067045 0.360924 -2.871232
2007-01-22 07:46:17 51°13.62 2°56.044 15.1641 0.067148 0.361495 -2.871232
2007-01-22 07:46:22 51°13.62 2°56.044 15.1665 0.067148 0.361502 -2.871232
2007-01-22 07:46:27 51°13.62 2°56.044 15.1654 0.067148 0.361495 -2.871232
2007-01-22 07:46:32 51°13.62 2°56.044 15.1634 0.067148 0.361502 -2.871232
2007-01-22 07:46:37 51°13.62 2°56.044 15.1609 0.067148 0.361502 -2.871232
2007-01-22 07:46:42 51°13.62 2°56.044 15.1568 0.067148 0.361509 -2.871232
2007-01-22 07:46:47 51°13.62 2°56.043 15.1553 0.067148 0.361509 -2.871232
2007-01-22 07:46:52 51°13.62 2°56.043 15.1547 0.067148 0.361509 -2.871232
2007-01-22 07:46:57 51°13.62 2°56.043 15.1548 0.067148 0.361516 -2.871232
2007-01-22 07:47:02 51°13.62 2°56.043 15.1535 0.067148 0.361523 -2.871232
2007-01-22 07:47:07 51°13.62 2°56.043 15.1537 0.067148 0.361523 -2.871232
2007-01-22 07:47:12 51°13.62 2°56.043 15.1533 0.067148 0.361523 -2.871232
2007-01-22 07:47:17 51°13.62 2°56.043 15.1536 0.067148 0.361523 -2.871232
2007-01-22 07:47:22 51°13.62 2°56.043 15.1528 0.067148 0.36153 -2.871232
2007-01-22 07:47:27 51°13.62 2°56.043 15.1543 0.067148 0.36153 -2.871232
2007-01-22 07:47:32 51°13.62 2°56.043 15.1569 0.067148 0.36153 -2.871232
2007-01-22 07:47:37 51°13.62 2°56.043 15.1573 0.067148 0.36153 -2.871232
2007-01-22 07:47:42 51°13.62 2°56.043 15.158 0.067045 0.360965 -2.871232
2007-01-22 07:47:47 51°13.62 2°56.043 15.162 0.067148 0.361537 -2.871232
2007-01-22 07:47:52 51°13.62 2°56.043 15.1622 0.067148 0.361537 -2.871232
2007-01-22 07:47:57 51°13.62 2°56.043 15.1626 0.067045 0.360972 -2.871232
2007-01-22 07:48:02 51°13.62 2°56.043 15.1632 0.067045 0.360972 -2.871232
2007-01-22 07:48:07 51°13.62 2°56.043 15.1612 0.067045 0.360972 -2.871232
2007-01-22 07:48:12 51°13.62 2°56.043 15.162 0.067045 0.360979 -2.871232
2007-01-22 07:48:17 51°13.62 2°56.043 15.1588 0.067148 0.361551 -2.871232
2007-01-22 07:48:22 51°13.62 2°56.043 15.1588 0.067148 0.361551 -2.871232
2007-01-22 07:48:27 51°13.62 2°56.043 15.1603 0.067045 0.360986 -2.871232
2007-01-22 07:48:32 51°13.62 2°56.043 15.1642 0.067148 0.361558 -2.871232
2007-01-22 07:48:36 51°13.62 2°56.043 15.1663 0.067148 0.361558 -2.871232
2007-01-22 07:48:41 51°13.62 2°56.043 15.1706 0.067045 0.360993 -2.871232
2007-01-22 07:48:46 51°13.62 2°56.043 15.1726 0.067045 0.360993 -2.871232
2007-01-22 07:48:52 51°13.62 2°56.043 15.167 0.067148 0.361572 -2.871232
2007-01-22 07:48:56 51°13.62 2°56.043 15.1664 0.067148 0.361572 -2.871232
2007-01-22 07:49:01 51°13.62 2°56.044 15.1669 0.067148 0.361579 -2.871232
2007-01-22 07:49:07 51°13.62 2°56.044 15.1625 0.067148 0.361579 -2.871232
2007-01-22 07:49:12 51°13.62 2°56.044 15.1621 0.067148 0.361579 -2.871232
2007-01-22 07:49:17 51°13.62 2°56.044 15.16 0.067045 0.361007 -2.871232
2007-01-22 07:49:22 51°13.62 2°56.044 15.1587 0.067045 0.361014 -2.871232
2007-01-22 07:49:27 51°13.62 2°56.044 15.1579 0.067148 0.361586 -2.871232
2007-01-22 07:49:32 51°13.62 2°56.044 15.1588 0.067045 0.361014 -2.871232
2007-01-22 07:49:37 51°13.62 2°56.044 15.1611 0.067045 0.361014 -2.871232
2007-01-22 07:49:42 51°13.62 2°56.044 15.1611 0.067148 0.361593 -2.871232
2007-01-22 07:49:47 51°13.62 2°56.043 15.1576 0.067148 0.3616 -2.871232
2007-01-22 07:49:52 51°13.62 2°56.043 15.1567 0.067148 0.361593 -2.871232
2007-01-22 07:49:57 51°13.62 2°56.043 15.1552 0.067045 0.361028 -2.871232
2007-01-22 07:50:02 51°13.62 2°56.043 15.1563 0.067045 0.361035 -2.871232
2007-01-22 07:50:07 51°13.62 2°56.043 15.1567 0.067045 0.361035 -2.871232
2007-01-22 07:50:12 51°13.62 2°56.043 15.1559 0.067148 0.361607 -2.871232
2007-01-22 07:50:17 51°13.62 2°56.043 15.154 0.067045 0.361035 -2.871232
2007-01-22 07:50:22 51°13.62 2°56.043 15.155 0.067045 0.361042 -2.871232
2007-01-22 07:50:27 51°13.62 2°56.043 15.1551 0.067045 0.361042 -2.871232
2007-01-22 07:50:32 51°13.62 2°56.043 15.1567 0.067148 0.361614 -2.871232
2007-01-22 07:50:37 51°13.62 2°56.043 15.1545 0.067148 0.361614 -2.871232
2007-01-22 07:50:42 51°13.62 2°56.043 15.1557 0.067148 0.361621 -2.871232
2007-01-22 07:50:47 51°13.62 2°56.043 15.1556 0.067045 0.361049 -2.871232
2007-01-22 07:50:52 51°13.62 2°56.043 15.1571 0.067148 0.361628 -2.871232
2007-01-22 07:50:57 51°13.62 2°56.043 15.1606 0.067148 0.361628 -2.871232
2007-01-22 07:51:02 51°13.62 2°56.043 15.1595 0.067148 0.361628 -2.871232
2007-01-22 07:51:07 51°13.62 2°56.043 15.1603 0.067148 0.361628 -2.871232
2007-01-22 07:51:12 51°13.62 2°56.043 15.1592 0.067045 0.361063 -2.871232
2007-01-22 07:51:17 51°13.62 2°56.043 15.1602 0.067045 0.36107 -2.871232
2007-01-22 07:51:22 51°13.62 2°56.043 15.1613 0.067045 0.36107 -2.871232
2007-01-22 07:51:27 51°13.62 2°56.043 15.1649 0.067148 0.361649 -2.871232
2007-01-22 07:51:32 51°13.62 2°56.043 15.1654 0.067045 0.361077 -2.871232
2007-01-22 07:51:37 51°13.62 2°56.043 15.1636 0.067045 0.361077 -2.871232
2007-01-22 07:51:42 51°13.62 2°56.043 15.1641 0.067045 0.361077 -2.871232
2007-01-22 07:51:47 51°13.62 2°56.043 15.1651 0.067045 0.361077 -2.871232
2007-01-22 07:51:52 51°13.62 2°56.043 15.1673 0.067045 0.361084 -2.871232
2007-01-22 07:51:57 51°13.62 2°56.043 15.1675 0.067148 0.361656 -2.871232
2007-01-22 07:52:02 51°13.62 2°56.043 15.1682 0.067148 0.361663 -2.871232
2007-01-22 07:52:07 51°13.62 2°56.043 15.1701 0.067148 0.361663 -2.871232
2007-01-22 07:52:12 51°13.62 2°56.043 15.1703 0.067045 0.361091 -2.871232
2007-01-22 07:52:17 51°13.62 2°56.043 15.1718 0.067148 0.36167 -2.871232
2007-01-22 07:52:22 51°13.62 2°56.043 15.1669 0.067045 0.361098 -2.871232
2007-01-22 07:52:27 51°13.62 2°56.043 15.1675 0.067045 0.361098 -2.871232
2007-01-22 07:52:32 51°13.62 2°56.043 15.1659 0.067148 0.361677 -2.871232
2007-01-22 07:52:37 51°13.619 2°56.043 15.1659 0.067148 0.361677 -2.871232
2007-01-22 07:52:42 51°13.619 2°56.043 15.1661 0.067148 0.361677 -2.871232
2007-01-22 07:52:47 51°13.619 2°56.043 15.164 0.067045 0.361112 -2.871232
2007-01-22 07:52:52 51°13.619 2°56.043 15.1631 0.067045 0.361112 -2.871232
2007-01-22 07:52:57 51°13.619 2°56.043 15.1623 0.067045 0.361119 -2.871232
2007-01-22 07:53:02 51°13.619 2°56.043 15.1612 0.067045 0.361119 -2.871232
2007-01-22 07:53:07 51°13.619 2°56.043 15.1639 0.067045 0.361119 -2.871232
2007-01-22 07:53:12 51°13.619 2°56.043 15.1611 0.067045 0.361119 -2.871232
2007-01-22 07:53:17 51°13.619 2°56.043 15.1599 0.067045 0.361126 -2.871232
2007-01-22 07:53:22 51°13.619 2°56.043 15.1595 0.067045 0.361126 -2.871232
2007-01-22 07:53:27 51°13.619 2°56.043 15.1591 0.067045 0.361126 -2.871232
2007-01-22 07:53:32 51°13.619 2°56.043 15.1572 0.067045 0.361133 -2.871232
2007-01-22 07:53:37 51°13.619 2°56.043 15.1577 0.067045 0.361133 -2.871232
2007-01-22 07:53:42 51°13.619 2°56.043 15.1555 0.067045 0.361133 -2.871232
2007-01-22 07:53:47 51°13.619 2°56.043 15.1535 0.067148 0.361711 -2.871232
2007-01-22 07:53:52 51°13.619 2°56.043 15.1541 0.067148 0.361711 -2.871232
2007-01-22 07:53:57 51°13.62 2°56.043 15.1522 0.067148 0.361718 -2.871232
2007-01-22 07:54:02 51°13.62 2°56.043 15.1566 0.067045 0.361147 -2.871232
2007-01-22 07:54:07 51°13.62 2°56.043 15.1573 0.067045 0.361147 -2.871232
2007-01-22 07:54:12 51°13.62 2°56.043 15.1564 0.067045 0.361147 -2.871232
2007-01-22 07:54:16 51°13.62 2°56.043 15.1575 0.067148 0.361725 -2.871232
2007-01-22 07:54:21 51°13.62 2°56.043 15.1568 0.067045 0.361154 -2.871232
2007-01-22 07:54:27 51°13.62 2°56.043 15.1569 0.067148 0.361732 -2.871232
2007-01-22 07:54:32 51°13.62 2°56.043 15.155 0.067045 0.361161 -2.871232
2007-01-22 07:54:37 51°13.62 2°56.043 15.1541 0.067045 0.361161 -2.871232
2007-01-22 07:54:42 51°13.62 2°56.043 15.1542 0.067045 0.361161 -2.871232
2007-01-22 07:54:46 51°13.62 2°56.043 15.1513 0.067045 0.361168 -2.871232
2007-01-22 07:54:52 51°13.62 2°56.043 15.1514 0.067045 0.361168 -2.871232
2007-01-22 07:54:57 51°13.62 2°56.043 15.1499 0.067045 0.361168 -2.871232
2007-01-22 07:55:02 51°13.619 2°56.043 15.1505 0.067045 0.361175 -2.871232
2007-01-22 07:55:07 51°13.619 2°56.043 15.1527 0.067045 0.361175 -2.871232
2007-01-22 07:55:12 51°13.619 2°56.043 15.1544 0.067045 0.361175 -2.871232
2007-01-22 07:55:17 51°13.62 2°56.043 15.1556 0.067148 0.361753 -2.871232
2007-01-22 07:55:22 51°13.62 2°56.043 15.1553 0.067045 0.361182 -2.871232
2007-01-22 07:55:27 51°13.62 2°56.043 15.1542 0.067148 0.36176 -2.871232
2007-01-22 07:55:32 51°13.62 2°56.043 15.1552 0.067045 0.361189 -2.871232
2007-01-22 07:55:37 51°13.62 2°56.043 15.1549 0.067045 0.361189 -2.871232
2007-01-22 07:55:42 51°13.62 2°56.043 15.154 0.067045 0.361189 -2.871232
2007-01-22 07:55:47 51°13.62 2°56.043 15.1536 0.067045 0.361196 -2.871232
2007-01-22 07:55:52 51°13.62 2°56.043 15.153 0.067045 0.361203 -2.871232
2007-01-22 07:55:56 51°13.62 2°56.043 15.1546 0.067045 0.361203 -2.871232
2007-01-22 07:56:02 51°13.62 2°56.043 15.153 0.067148 0.361774 -2.871232
2007-01-22 07:56:07 51°13.62 2°56.043 15.1536 0.067148 0.361774 -2.871232
2007-01-22 07:56:12 51°13.62 2°56.043 15.1526 0.067148 0.361781 -2.871232
2007-01-22 07:56:16 51°13.62 2°56.043 15.1544 0.067045 0.361209 -2.871232
2007-01-22 07:56:21 51°13.62 2°56.043 15.1516 0.067045 0.361209 -2.871232
2007-01-22 07:56:27 51°13.62 2°56.043 15.1435 0.067045 0.361216 -2.871232
2007-01-22 07:56:32 51°13.62 2°56.043 15.1287 0.067045 0.361216 -2.871232
2007-01-22 07:56:36 51°13.62 2°56.043 15.1282 0.067045 0.361216 -2.871232
2007-01-22 07:56:42 51°13.62 2°56.043 15.1315 0.067045 0.361216 -2.871232
2007-01-22 07:56:47 51°13.62 2°56.043 15.1364 0.067045 0.361223 -2.871232
2007-01-22 07:56:52 51°13.62 2°56.043 15.1381 0.067045 0.36123 -2.871232
2007-01-22 07:56:57 51°13.62 2°56.043 15.1385 0.067148 0.361802 -2.871232
2007-01-22 07:57:02 51°13.62 2°56.043 15.139 0.067045 0.36123 -2.871232
2007-01-22 07:57:07 51°13.62 2°56.043 15.1396 0.067045 0.36123 -2.871232
2007-01-22 07:57:12 51°13.62 2°56.043 15.1385 0.067148 0.361802 -2.871232
2007-01-22 07:57:17 51°13.62 2°56.043 15.1383 0.067045 0.361237 -2.871232
2007-01-22 07:57:22 51°13.62 2°56.043 15.138 0.067045 0.361237 -2.871232
2007-01-22 07:57:27 51°13.62 2°56.043 15.1394 0.067045 0.361244 -2.871232
2007-01-22 07:57:32 51°13.62 2°56.043 15.138 0.067045 0.361244 -2.871232
2007-01-22 07:57:37 51°13.62 2°56.043 15.1385 0.067045 0.361244 -2.871232
2007-01-22 07:57:42 51°13.62 2°56.042 15.138 0.067045 0.361244 -2.871232
2007-01-22 07:57:47 51°13.62 2°56.042 15.1397 0.067148 0.361823 -2.871232
2007-01-22 07:57:52 51°13.62 2°56.042 15.1391 0.066942 0.360679 -2.871232
2007-01-22 07:57:56 51°13.62 2°56.042 15.1395 0.067045 0.361258 -2.871232
2007-01-22 07:58:02 51°13.62 2°56.042 15.1374 0.067045 0.361258 -2.871232
2007-01-22 07:58:07 51°13.62 2°56.042 15.1363 0.067045 0.361258 -2.871232
2007-01-22 07:58:12 51°13.62 2°56.042 15.1327 0.067045 0.361258 -2.871232
2007-01-22 07:58:17 51°13.62 2°56.042 15.1323 0.067045 0.361265 -2.871232
2007-01-22 07:58:22 51°13.62 2°56.042 15.1328 0.067148 0.361837 -2.871232
2007-01-22 07:58:27 51°13.62 2°56.042 15.1338 0.067045 0.361265 -2.871232
2007-01-22 07:58:32 51°13.62 2°56.042 15.1359 0.067045 0.361272 -2.871232
2007-01-22 07:58:37 51°13.62 2°56.042 15.1369 0.067045 0.361272 -2.871232
2007-01-22 07:58:42 51°13.62 2°56.042 15.1378 0.067045 0.361272 -2.871232
2007-01-22 07:58:47 51°13.62 2°56.042 15.1383 0.067045 0.361272 -2.871232
2007-01-22 07:58:52 51°13.62 2°56.042 15.1385 0.067045 0.361279 -2.871232
2007-01-22 07:58:57 51°13.62 2°56.042 15.1382 0.067045 0.361279 -2.871232
2007-01-22 07:59:02 51°13.62 2°56.042 15.1371 0.067045 0.361286 -2.871232
2007-01-22 07:59:07 51°13.62 2°56.042 15.1361 0.067045 0.361286 -2.871232
2007-01-22 07:59:12 51°13.62 2°56.042 15.1355 0.066942 0.360714 -2.871232
2007-01-22 07:59:17 51°13.62 2°56.042 15.1362 0.067045 0.361286 -2.871232
2007-01-22 07:59:22 51°13.62 2°56.042 15.1372 0.067045 0.361293 -2.871232
2007-01-22 07:59:27 51°13.62 2°56.042 15.1363 0.066942 0.360721 -2.871232
2007-01-22 07:59:32 51°13.62 2°56.042 15.1365 0.067045 0.3613 -2.871232
2007-01-22 07:59:37 51°13.62 2°56.042 15.138 0.067045 0.3613 -2.871232
2007-01-22 07:59:41 51°13.62 2°56.042 15.136 0.067045 0.3613 -2.871232
2007-01-22 07:59:47 51°13.62 2°56.042 15.1347 0.067045 0.361307 -2.871232
2007-01-22 07:59:52 51°13.62 2°56.042 15.1362 0.067045 0.361307 -2.871232
2007-01-22 07:59:57 51°13.62 2°56.042 15.136 0.067045 0.361307 -2.871232
2007-01-22 08:00:02 51°13.62 2°56.042 15.1371 0.067045 0.361314 -2.871232
2007-01-22 08:00:07 51°13.62 2°56.042 15.1379 0.067045 0.361314 -2.871232
2007-01-22 08:00:12 51°13.62 2°56.042 15.1376 0.067045 0.361314 -2.871232
2007-01-22 08:00:17 51°13.62 2°56.042 15.1377 0.067045 0.361314 -2.871232
2007-01-22 08:00:22 51°13.62 2°56.042 15.1381 0.067045 0.361321 -2.871232
2007-01-22 08:00:27 51°13.62 2°56.042 15.1378 0.067045 0.361321 -2.871232
2007-01-22 08:00:32 51°13.62 2°56.042 15.136 0.067045 0.361321 -2.871232
2007-01-22 08:00:37 51°13.62 2°56.043 15.135 0.067045 0.361321 -2.871232
2007-01-22 08:00:42 51°13.62 2°56.042 15.1355 0.067045 0.361328 -2.871232
2007-01-22 08:00:47 51°13.62 2°56.042 15.1361 0.067045 0.361328 -2.871232
2007-01-22 08:00:52 51°13.62 2°56.042 15.1362 0.067045 0.361335 -2.871232
2007-01-22 08:00:57 51°13.62 2°56.042 15.1371 0.067045 0.361335 -2.871232
2007-01-22 08:01:02 51°13.62 2°56.042 15.1393 0.067045 0.361335 -2.871232
2007-01-22 08:01:07 51°13.62 2°56.042 15.1382 0.067045 0.361335 -2.871232
2007-01-22 08:01:12 51°13.62 2°56.043 15.1358 0.067045 0.361342 -2.871232
2007-01-22 08:01:17 51°13.62 2°56.042 15.1339 0.067045 0.361342 -2.871232
2007-01-22 08:01:22 51°13.62 2°56.042 15.1345 0.067045 0.361342 -2.871232
2007-01-22 08:01:27 51°13.62 2°56.042 15.1377 0.067045 0.361349 -2.871232
2007-01-22 08:01:32 51°13.62 2°56.042 15.136 0.067045 0.361356 -2.871232
2007-01-22 08:01:37 51°13.62 2°56.042 15.1346 0.067045 0.361356 -2.871232
2007-01-22 08:01:42 51°13.62 2°56.042 15.1355 0.066942 0.360784 -2.871232
2007-01-22 08:01:47 51°13.62 2°56.042 15.1342 0.067045 0.361356 -2.871232
2007-01-22 08:01:52 51°13.619 2°56.042 15.1358 0.067045 0.361363 -2.871232
2007-01-22 08:01:57 51°13.619 2°56.042 15.1359 0.067045 0.361363 -2.871232
2007-01-22 08:02:02 51°13.619 2°56.042 15.1331 0.067045 0.361363 -2.871232
2007-01-22 08:02:07 51°13.619 2°56.042 15.1294 0.067045 0.361363 -2.871232
2007-01-22 08:02:12 51°13.619 2°56.043 15.13 0.067045 0.36137 -2.871232
2007-01-22 08:02:17 51°13.619 2°56.042 15.1301 0.067045 0.36137 -2.871232
2007-01-22 08:02:22 51°13.619 2°56.043 15.1291 0.067045 0.36137 -2.871232
2007-01-22 08:02:26 51°13.619 2°56.043 15.1319 0.067045 0.361377 -2.871232
2007-01-22 08:02:31 51°13.619 2°56.043 15.1336 0.067045 0.361377 -2.871232
2007-01-22 08:02:37 51°13.619 2°56.043 15.1337 0.067045 0.361377 -2.871232
2007-01-22 08:02:42 51°13.619 2°56.043 15.1343 0.067045 0.361377 -2.871232
2007-01-22 08:02:47 51°13.619 2°56.043 15.1354 0.067045 0.361384 -2.871232
2007-01-22 08:02:52 51°13.619 2°56.043 15.1358 0.067045 0.361384 -2.871232
2007-01-22 08:02:57 51°13.619 2°56.043 15.133 0.067045 0.361391 -2.871232
2007-01-22 08:03:02 51°13.619 2°56.043 15.1351 0.066942 0.360819 -2.871232
2007-01-22 08:03:07 51°13.619 2°56.043 15.1331 0.066942 0.360819 -2.871232
2007-01-22 08:03:12 51°13.619 2°56.043 15.1345 0.067045 0.361391 -2.871232
2007-01-22 08:03:17 51°13.619 2°56.043 15.1335 0.067045 0.361398 -2.871232
2007-01-22 08:03:22 51°13.619 2°56.043 15.1356 0.067045 0.361398 -2.871232
2007-01-22 08:03:27 51°13.619 2°56.043 15.1329 0.067045 0.361398 -2.871232
2007-01-22 08:03:32 51°13.619 2°56.043 15.1316 0.067045 0.361405 -2.871232
2007-01-22 08:03:37 51°13.619 2°56.043 15.1305 0.067045 0.361405 -2.871232
2007-01-22 08:03:41 51°13.619 2°56.043 15.132 0.067045 0.361405 -2.871232
2007-01-22 08:03:47 51°13.619 2°56.043 15.1318 0.067045 0.361412 -2.871232
2007-01-22 08:03:52 51°13.619 2°56.043 15.1347 0.067045 0.361412 -2.871232
2007-01-22 08:03:57 51°13.619 2°56.043 15.1336 0.066942 0.36084 -2.871232
2007-01-22 08:04:02 51°13.619 2°56.043 15.1355 0.067045 0.361419 -2.871232
2007-01-22 08:04:07 51°13.619 2°56.043 15.1363 0.067045 0.361419 -2.871232
2007-01-22 08:04:12 51°13.619 2°56.043 15.1346 0.066942 0.360847 -2.871232
2007-01-22 08:04:17 51°13.619 2°56.043 15.1387 0.067045 0.361426 -2.871232
2007-01-22 08:04:22 51°13.619 2°56.043 15.1278 0.066942 0.360854 -2.871232
2007-01-22 08:04:26 51°13.619 2°56.043 15.1207 0.067045 0.361426 -2.871232
2007-01-22 08:04:32 51°13.619 2°56.042 15.1245 0.067045 0.361433 -2.871232
2007-01-22 08:04:37 51°13.619 2°56.042 15.1277 0.067045 0.361433 -2.871232
2007-01-22 08:04:42 51°13.619 2°56.042 15.131 0.067045 0.361433 -2.871232
2007-01-22 08:04:47 51°13.618 2°56.042 15.1333 0.066942 0.360868 -2.871232
2007-01-22 08:04:52 51°13.618 2°56.042 15.1356 0.066942 0.360868 -2.871232
2007-01-22 08:04:57 51°13.618 2°56.042 15.1363 0.067045 0.36144 -2.871232
2007-01-22 08:05:02 51°13.618 2°56.042 15.1365 0.067045 0.361447 -2.871232
2007-01-22 08:05:07 51°13.618 2°56.042 15.1363 0.067045 0.361447 -2.871232
2007-01-22 08:05:12 51°13.618 2°56.042 15.1349 0.067045 0.361447 -2.871232
2007-01-22 08:05:17 51°13.618 2°56.042 15.1374 0.066942 0.360875 -2.871232
2007-01-22 08:05:22 51°13.618 2°56.042 15.1366 0.067045 0.361454 -2.871232
2007-01-22 08:05:27 51°13.618 2°56.042 15.1391 0.066942 0.360882 -2.871232
2007-01-22 08:05:32 51°13.618 2°56.042 15.1412 0.067045 0.361461 -2.871232
2007-01-22 08:05:36 51°13.618 2°56.042 15.1408 0.067045 0.361461 -2.871232
2007-01-22 08:05:42 51°13.618 2°56.042 15.1393 0.067045 0.361461 -2.871232
2007-01-22 08:05:47 51°13.618 2°56.042 15.1394 0.066942 0.360889 -2.871232
2007-01-22 08:05:52 51°13.618 2°56.042 15.1403 0.067045 0.361468 -2.871232
2007-01-22 08:05:56 51°13.618 2°56.042 15.1393 0.066942 0.360896 -2.871232
2007-01-22 08:06:02 51°13.618 2°56.042 15.1404 0.067045 0.361475 -2.871232
2007-01-22 08:06:07 51°13.618 2°56.042 15.1408 0.067045 0.361475 -2.871232
2007-01-22 08:06:12 51°13.618 2°56.042 15.142 0.067045 0.361475 -2.871232
2007-01-22 08:06:16 51°13.617 2°56.042 15.1404 0.067045 0.361475 -2.871232
2007-01-22 08:06:21 51°13.617 2°56.042 15.1407 0.067045 0.361482 -2.871232
2007-01-22 08:06:26 51°13.617 2°56.042 15.1389 0.067045 0.361482 -2.871232
2007-01-22 08:06:32 51°13.617 2°56.042 15.1352 0.067045 0.361482 -2.871232
2007-01-22 08:06:37 51°13.618 2°56.042 15.1359 0.067045 0.361482 -2.871232
2007-01-22 08:06:42 51°13.618 2°56.042 15.1367 0.067045 0.361489 -2.871232
2007-01-22 08:06:47 51°13.618 2°56.042 15.1387 0.067045 0.361489 -2.871232
2007-01-22 08:06:52 51°13.618 2°56.042 15.142 0.067045 0.361489 -2.871232
2007-01-22 08:06:57 51°13.619 2°56.042 15.1417 0.067045 0.361496 -2.871232
2007-01-22 08:07:02 51°13.619 2°56.042 15.1437 0.066942 0.360924 -2.871232
2007-01-22 08:07:07 51°13.619 2°56.042 15.1418 0.066942 0.360924 -2.871232
2007-01-22 08:07:12 51°13.619 2°56.042 15.1416 0.066942 0.360931 -2.871232
2007-01-22 08:07:17 51°13.619 2°56.042 15.1436 0.067045 0.361503 -2.871232
2007-01-22 08:07:22 51°13.619 2°56.042 15.1441 0.067045 0.36151 -2.871232
2007-01-22 08:07:27 51°13.619 2°56.042 15.1453 0.067045 0.36151 -2.871232
2007-01-22 08:07:32 51°13.618 2°56.042 15.1434 0.067045 0.36151 -2.871232
2007-01-22 08:07:37 51°13.618 2°56.042 15.1437 0.067045 0.36151 -2.871232
2007-01-22 08:07:41 51°13.617 2°56.042 15.1444 0.067045 0.361517 -2.871232
2007-01-22 08:07:47 51°13.617 2°56.042 15.1444 0.066942 0.360945 -2.871232
2007-01-22 08:07:52 51°13.618 2°56.042 15.1438 0.067045 0.361517 -2.871232
2007-01-22 08:07:57 51°13.619 2°56.042 15.1441 0.067045 0.361524 -2.871232
2007-01-22 08:08:02 51°13.619 2°56.042 15.1419 0.066942 0.360952 -2.871232
2007-01-22 08:08:07 51°13.619 2°56.042 15.141 0.066942 0.360952 -2.871232
2007-01-22 08:08:12 51°13.619 2°56.042 15.1388 0.066942 0.360959 -2.871232
2007-01-22 08:08:17 51°13.62 2°56.042 15.1394 0.067045 0.361531 -2.871232
2007-01-22 08:08:22 51°13.62 2°56.042 15.1387 0.066942 0.360959 -2.871232
2007-01-22 08:08:27 51°13.62 2°56.042 15.1396 0.067045 0.361531 -2.871232
2007-01-22 08:08:32 51°13.62 2°56.042 15.1374 0.067045 0.361538 -2.871232
2007-01-22 08:08:36 51°13.619 2°56.042 15.1386 0.067045 0.361538 -2.871232
2007-01-22 08:08:41 51°13.618 2°56.042 15.138 0.067045 0.361545 -2.871232
2007-01-22 08:08:47 51°13.617 2°56.042 15.1358 0.066942 0.360973 -2.871232
2007-01-22 08:08:52 51°13.617 2°56.042 15.1364 0.066942 0.360973 -2.871232
2007-01-22 08:08:57 51°13.617 2°56.042 15.138 0.067045 0.361552 -2.871232
2007-01-22 08:09:02 51°13.617 2°56.042 15.1397 0.067045 0.361552 -2.871232
2007-01-22 08:09:07 51°13.618 2°56.042 15.1411 0.067045 0.361552 -2.871232
2007-01-22 08:09:12 51°13.618 2°56.042 15.1414 0.067045 0.361552 -2.871232
2007-01-22 08:09:17 51°13.618 2°56.042 15.1414 0.067045 0.361559 -2.871232
2007-01-22 08:09:22 51°13.618 2°56.042 15.1406 0.067045 0.361559 -2.871232
2007-01-22 08:09:27 51°13.618 2°56.042 15.1398 0.067045 0.361559 -2.871232
2007-01-22 08:09:32 51°13.618 2°56.042 15.1389 0.067045 0.361566 -2.871232
2007-01-22 08:09:36 51°13.618 2°56.042 15.1405 0.067045 0.361566 -2.871232
2007-01-22 08:09:42 51°13.618 2°56.042 15.1401 0.066942 0.360994 -2.871232
2007-01-22 08:09:47 51°13.619 2°56.042 15.1385 0.067045 0.361573 -2.871232
2007-01-22 08:09:52 51°13.619 2°56.042 15.1414 0.067045 0.361573 -2.871232
2007-01-22 08:09:57 51°13.619 2°56.042 15.1401 0.067045 0.361573 -2.871232
2007-01-22 08:10:02 51°13.619 2°56.042 15.1408 0.067045 0.36158 -2.871232
2007-01-22 08:10:07 51°13.619 2°56.043 15.14 0.067045 0.36158 -2.871232
2007-01-22 08:10:12 51°13.619 2°56.043 15.14 0.067045 0.36158 -2.871232
2007-01-22 08:10:17 51°13.619 2°56.043 15.1397 0.066942 0.361014 -2.871232
2007-01-22 08:10:22 51°13.619 2°56.043 15.1416 0.066942 0.361014 -2.871232
2007-01-22 08:10:27 51°13.619 2°56.043 15.1398 0.067045 0.361587 -2.871232
2007-01-22 08:10:32 51°13.619 2°56.043 15.1418 0.066942 0.361021 -2.871232
2007-01-22 08:10:36 51°13.619 2°56.043 15.1438 0.066942 0.361021 -2.871232
2007-01-22 08:10:42 51°13.619 2°56.043 15.1454 0.067045 0.361594 -2.871232
2007-01-22 08:10:47 51°13.619 2°56.043 15.147 0.067045 0.361601 -2.871232
2007-01-22 08:10:52 51°13.619 2°56.043 15.1476 0.066942 0.361028 -2.871232
2007-01-22 08:10:57 51°13.619 2°56.043 15.1483 0.067045 0.361608 -2.871232
2007-01-22 08:11:02 51°13.619 2°56.043 15.1488 0.066942 0.361035 -2.871232
2007-01-22 08:11:07 51°13.619 2°56.043 15.1479 0.066942 0.361035 -2.871232
2007-01-22 08:11:12 51°13.618 2°56.043 15.1481 0.066942 0.361035 -2.871232
2007-01-22 08:11:17 51°13.618 2°56.042 15.1501 0.066942 0.361042 -2.871232
2007-01-22 08:11:22 51°13.617 2°56.042 15.1494 0.067045 0.361615 -2.871232
2007-01-22 08:11:26 51°13.617 2°56.042 15.1512 0.066942 0.361042 -2.871232
2007-01-22 08:11:31 51°13.617 2°56.042 15.1503 0.066942 0.361049 -2.871232
2007-01-22 08:11:36 51°13.617 2°56.042 15.1525 0.066942 0.361049 -2.871232
2007-01-22 08:11:41 51°13.617 2°56.042 15.1529 0.066942 0.361049 -2.871232
2007-01-22 08:11:46 51°13.617 2°56.042 15.1552 0.067045 0.361629 -2.871232
2007-01-22 08:11:51 51°13.618 2°56.042 15.1569 0.067045 0.361629 -2.871232
2007-01-22 08:11:55 51°13.618 2°56.042 15.1583 0.066942 0.361056 -2.871232
2007-01-22 08:12:01 51°13.618 2°56.043 15.1589 0.067045 0.361636 -2.871232
2007-01-22 08:12:07 51°13.618 2°56.043 15.1602 0.067045 0.361636 -2.871232
2007-01-22 08:12:12 51°13.618 2°56.043 15.1606 0.066942 0.361063 -2.871232
2007-01-22 08:12:16 51°13.618 2°56.043 15.1605 0.066942 0.361063 -2.871232
2007-01-22 08:12:21 51°13.618 2°56.043 15.1609 0.066942 0.36107 -2.871232
2007-01-22 08:12:27 51°13.619 2°56.043 15.1599 0.067045 0.361643 -2.871232
2007-01-22 08:12:32 51°13.619 2°56.043 15.1614 0.067045 0.36165 -2.871232
2007-01-22 08:12:37 51°13.619 2°56.043 15.1607 0.067045 0.36165 -2.871232
2007-01-22 08:12:42 51°13.619 2°56.043 15.159 0.066942 0.361077 -2.871232
2007-01-22 08:12:47 51°13.619 2°56.043 15.1573 0.066942 0.361077 -2.871232
2007-01-22 08:12:52 51°13.619 2°56.043 15.1574 0.066942 0.361084 -2.871232
2007-01-22 08:12:57 51°13.619 2°56.043 15.1584 0.066942 0.361084 -2.871232
2007-01-22 08:13:02 51°13.619 2°56.043 15.1565 0.067045 0.361657 -2.871232
2007-01-22 08:13:07 51°13.619 2°56.043 15.1548 0.067045 0.361657 -2.871232
2007-01-22 08:13:12 51°13.619 2°56.043 15.1569 0.067045 0.361664 -2.871232
2007-01-22 08:13:17 51°13.619 2°56.043 15.1536 0.066942 0.361091 -2.871232
2007-01-22 08:13:22 51°13.62 2°56.043 15.1535 0.067045 0.361664 -2.871232
2007-01-22 08:13:26 51°13.62 2°56.043 15.1532 0.067045 0.361671 -2.871232
2007-01-22 08:13:32 51°13.62 2°56.043 15.1529 0.067045 0.361671 -2.871232
2007-01-22 08:13:37 51°13.619 2°56.043 15.1521 0.067045 0.361671 -2.871232
2007-01-22 08:13:42 51°13.619 2°56.043 15.1508 0.066942 0.361105 -2.871232
2007-01-22 08:13:47 51°13.619 2°56.043 15.1511 0.067045 0.361678 -2.871232
2007-01-22 08:13:52 51°13.619 2°56.043 15.1485 0.066942 0.361105 -2.871232
2007-01-22 08:13:57 51°13.619 2°56.043 15.1467 0.067045 0.361685 -2.871232
2007-01-22 08:14:02 51°13.619 2°56.043 15.1477 0.066942 0.361112 -2.871232
2007-01-22 08:14:06 51°13.619 2°56.043 15.1468 0.066942 0.361112 -2.871232
2007-01-22 08:14:12 51°13.619 2°56.043 15.1464 0.066942 0.361119 -2.871232
2007-01-22 08:14:16 51°13.619 2°56.043 15.1446 0.067045 0.361692 -2.871232
2007-01-22 08:14:22 51°13.619 2°56.043 15.1467 0.067045 0.361692 -2.871232
2007-01-22 08:14:27 51°13.619 2°56.043 15.149 0.067045 0.361692 -2.871232
2007-01-22 08:14:32 51°13.619 2°56.043 15.1536 0.066942 0.361126 -2.871232
2007-01-22 08:14:37 51°13.619 2°56.043 15.155 0.066942 0.361126 -2.871232
2007-01-22 08:14:42 51°13.619 2°56.043 15.1588 0.066942 0.361133 -2.871232
2007-01-22 08:14:47 51°13.619 2°56.043 15.1615 0.067045 0.361706 -2.871232
2007-01-22 08:14:52 51°13.619 2°56.043 15.1635 0.066942 0.36114 -2.871232
2007-01-22 08:14:57 51°13.619 2°56.043 15.1635 0.066942 0.36114 -2.871232
2007-01-22 08:15:02 51°13.618 2°56.043 15.1649 0.067045 0.361713 -2.871232
2007-01-22 08:15:07 51°13.618 2°56.043 15.161 0.067045 0.361713 -2.871232
2007-01-22 08:15:12 51°13.618 2°56.043 15.161 0.066942 0.361147 -2.871232
2007-01-22 08:15:17 51°13.619 2°56.043 15.1642 0.067045 0.36172 -2.871232
2007-01-22 08:15:22 51°13.619 2°56.043 15.1622 0.066942 0.361147 -2.871232
2007-01-22 08:15:27 51°13.619 2°56.043 15.1622 0.067045 0.361727 -2.871232
2007-01-22 08:15:32 51°13.619 2°56.043 15.1634 0.066942 0.361161 -2.871232
2007-01-22 08:15:37 51°13.619 2°56.044 15.166 0.066942 0.361161 -2.871232
2007-01-22 08:15:42 51°13.619 2°56.044 15.1685 0.066942 0.361161 -2.871232
2007-01-22 08:15:47 51°13.619 2°56.044 15.1709 0.066942 0.361161 -2.871232
2007-01-22 08:15:52 51°13.619 2°56.044 15.1675 0.066942 0.361168 -2.871232
2007-01-22 08:15:57 51°13.619 2°56.044 15.1692 0.066942 0.361168 -2.871232
2007-01-22 08:16:02 51°13.619 2°56.044 15.1723 0.066942 0.361175 -2.871232
2007-01-22 08:16:07 51°13.619 2°56.044 15.1749 0.066942 0.361175 -2.871232
2007-01-22 08:16:11 51°13.619 2°56.044 15.1795 0.066942 0.361175 -2.871232
2007-01-22 08:16:16 51°13.619 2°56.044 15.1786 0.066942 0.361182 -2.871232
2007-01-22 08:16:21 51°13.619 2°56.044 15.1809 0.066942 0.361189 -2.871232
2007-01-22 08:16:26 51°13.619 2°56.044 15.1822 0.066942 0.361189 -2.871232
2007-01-22 08:16:31 51°13.619 2°56.044 15.182 0.066942 0.361189 -2.871232
2007-01-22 08:16:36 51°13.619 2°56.044 15.1834 0.066942 0.361189 -2.871232
2007-01-22 08:16:41 51°13.619 2°56.044 15.184 0.067045 0.361769 -2.871232
2007-01-22 08:16:46 51°13.619 2°56.044 15.1824 0.066942 0.361203 -2.871232
2007-01-22 08:16:51 51°13.619 2°56.044 15.1809 0.066942 0.36121 -2.871232
2007-01-22 08:16:56 51°13.619 2°56.044 15.1678 0.066942 0.36121 -2.871232
2007-01-22 08:17:02 51°13.618 2°56.043 15.1497 0.066942 0.361217 -2.871232
2007-01-22 08:17:07 51°13.618 2°56.043 15.1457 0.066942 0.361217 -2.871232
2007-01-22 08:17:12 51°13.619 2°56.043 15.1337 0.066942 0.361217 -2.871232
2007-01-22 08:17:16 51°13.619 2°56.042 15.1383 0.066942 0.361217 -2.871232
2007-01-22 08:17:21 51°13.619 2°56.04 15.0906 0.066942 0.361224 -2.871232
2007-01-22 08:17:26 51°13.62 2°56.039 15.1349 0.066942 0.361231 -2.871232
2007-01-22 08:17:31 51°13.621 2°56.036 15.1358 0.066942 0.361231 -2.871232
2007-01-22 08:17:36 51°13.622 2°56.034 15.1518 0.066942 0.361231 -2.871232
2007-01-22 08:17:41 51°13.623 2°56.03 15.1561 0.066942 0.361238 -2.871232
2007-01-22 08:17:46 51°13.624 2°56.027 15.1448 0.066942 0.361245 -2.871232
2007-01-22 08:17:51 51°13.625 2°56.022 15.1367 0.066942 0.361252 -2.871232
2007-01-22 08:17:57 51°13.627 2°56.016 15.1413 0.066942 0.361252 -2.871232
2007-01-22 08:18:02 51°13.629 2°56.011 15.1453 0.066942 0.361259 -2.871232
2007-01-22 08:18:07 51°13.63 2°56.005 15.1672 0.066942 0.361259 -2.871232
2007-01-22 08:18:12 51°13.632 2°55.998 15.1643 0.066942 0.361266 -2.871232
2007-01-22 08:18:17 51°13.635 2°55.991 15.169 0.066942 0.361266 -2.871232
2007-01-22 08:18:22 51°13.637 2°55.984 15.1822 0.066942 0.361273 -2.871232
2007-01-22 08:18:27 51°13.639 2°55.977 15.1848 0.066942 0.36128 -2.871232
2007-01-22 08:18:32 51°13.642 2°55.969 15.1907 0.066942 0.36128 -2.871232
2007-01-22 08:18:37 51°13.644 2°55.961 15.1939 0.066942 0.36128 -2.871232
2007-01-22 08:18:42 51°13.646 2°55.953 15.1879 0.066942 0.361287 -2.871232
2007-01-22 08:18:47 51°13.648 2°55.945 15.1755 0.066942 0.361294 -2.871232
2007-01-22 08:18:52 51°13.651 2°55.936 15.1716 0.066942 0.361301 -2.871232
2007-01-22 08:18:57 51°13.653 2°55.927 15.1876 0.066942 0.361301 -2.871232
2007-01-22 08:19:02 51°13.655 2°55.918 15.2196 0.066839 0.360728 -2.871232
2007-01-22 08:19:07 51°13.657 2°55.909 15.2093 0.066839 0.360728 -2.871232
2007-01-22 08:19:12 51°13.659 2°55.901 15.1997 0.066942 0.361308 -2.871232
2007-01-22 08:19:17 51°13.661 2°55.893 15.2027 0.066942 0.361315 -2.871232
2007-01-22 08:19:22 51°13.664 2°55.884 15.1995 0.066942 0.361322 -2.871232
2007-01-22 08:19:27 51°13.665 2°55.876 15.2004 0.066942 0.361322 -2.871232
2007-01-22 08:19:32 51°13.667 2°55.869 15.2017 0.066942 0.361329 -2.871232
2007-01-22 08:19:36 51°13.669 2°55.863 15.2037 0.066942 0.361329 -2.871232
2007-01-22 08:19:41 51°13.67 2°55.855 15.2066 0.066942 0.361336 -2.871232
2007-01-22 08:19:46 51°13.672 2°55.848 15.2065 0.067045 0.361916 -2.871232
2007-01-22 08:19:51 51°13.673 2°55.841 15.2054 0.066942 0.36135 -2.871232
2007-01-22 08:19:56 51°13.675 2°55.834 15.2042 0.067045 0.361923 -2.871232
2007-01-22 08:20:01 51°13.676 2°55.827 15.2025 0.066942 0.361357 -2.871232
2007-01-22 08:20:05 51°13.677 2°55.822 15.2022 0.066942 0.361357 -2.871232
2007-01-22 08:20:11 51°13.679 2°55.814 15.2014 0.066942 0.361364 -2.871232
2007-01-22 08:20:15 51°13.68 2°55.809 15.2015 0.066942 0.361371 -2.871232
2007-01-22 08:20:20 51°13.681 2°55.803 15.2017 0.066942 0.361378 -2.871232
2007-01-22 08:20:25 51°13.681 2°55.797 15.2012 0.067045 0.361958 -2.871232
2007-01-22 08:20:30 51°13.682 2°55.791 15.2007 0.066942 0.361385 -2.871232
2007-01-22 08:20:35 51°13.682 2°55.785 15.1983 0.066942 0.361385 -2.871232
2007-01-22 08:20:40 51°13.683 2°55.78 15.1999 0.066942 0.361392 -2.871232
2007-01-22 08:20:44 51°13.683 2°55.776 15.198 0.066942 0.361392 -2.871232
2007-01-22 08:20:49 51°13.683 2°55.771 15.2005 0.066942 0.361399 -2.871232
2007-01-22 08:20:54 51°13.683 2°55.766 15.2018 0.067045 0.361979 -2.871232
2007-01-22 08:20:59 51°13.683 2°55.762 15.2031 0.066942 0.361413 -2.871232
2007-01-22 08:21:04 51°13.682 2°55.759 15.2043 0.066942 0.361413 -2.871232
2007-01-22 08:21:08 51°13.682 2°55.757 15.2071 0.066942 0.36142 -2.871232
2007-01-22 08:21:13 51°13.682 2°55.755 15.2097 0.066942 0.36142 -2.871232
2007-01-22 08:21:17 51°13.682 2°55.753 15.2235 0.066942 0.361427 -2.871232
2007-01-22 08:21:23 51°13.682 2°55.752 15.2375 0.066942 0.361434 -2.871232
2007-01-22 08:21:29 51°13.683 2°55.751 15.2252 0.066942 0.361434 -2.871232
2007-01-22 08:21:33 51°13.683 2°55.751 15.2256 0.066942 0.361434 -2.871232
2007-01-22 08:21:39 51°13.684 2°55.752 15.2204 0.066839 0.360868 -2.871232
2007-01-22 08:21:43 51°13.685 2°55.752 15.2252 0.066942 0.361448 -2.871232
2007-01-22 08:21:48 51°13.686 2°55.753 15.2245 0.066942 0.361455 -2.871232
2007-01-22 08:21:53 51°13.687 2°55.754 15.2263 0.066942 0.361462 -2.871232
2007-01-22 08:21:58 51°13.688 2°55.755 15.2344 0.066942 0.361469 -2.871232
2007-01-22 08:22:04 51°13.69 2°55.756 15.2701 0.066942 0.361469 -2.871232
2007-01-22 08:22:08 51°13.691 2°55.757 15.3022 0.066942 0.361476 -2.871232
2007-01-22 08:22:13 51°13.693 2°55.758 15.3041 0.066942 0.361483 -2.871232
2007-01-22 08:22:18 51°13.695 2°55.759 15.296 0.066942 0.36149 -2.871232
2007-01-22 08:22:23 51°13.698 2°55.76 15.2943 0.066942 0.361497 -2.871232
2007-01-22 08:22:28 51°13.7 2°55.76 15.2903 0.066942 0.361497 -2.871232
2007-01-22 08:22:33 51°13.703 2°55.76 15.288 0.066942 0.361497 -2.871232
2007-01-22 08:22:38 51°13.706 2°55.76 15.2902 0.066942 0.361504 -2.871232
2007-01-22 08:22:43 51°13.709 2°55.759 15.2874 0.066942 0.361511 -2.871232
2007-01-22 08:22:48 51°13.712 2°55.758 15.2965 0.066942 0.361518 -2.871232
2007-01-22 08:22:53 51°13.715 2°55.757 15.2943 0.066942 0.361525 -2.871232
2007-01-22 08:22:58 51°13.719 2°55.754 15.3043 0.066942 0.361532 -2.871232
2007-01-22 08:23:03 51°13.722 2°55.752 15.3092 0.066942 0.361532 -2.871232
2007-01-22 08:23:08 51°13.726 2°55.748 15.2986 0.066839 0.360966 -2.871232
2007-01-22 08:23:13 51°13.729 2°55.744 15.275 0.066942 0.361539 -2.871232
2007-01-22 08:23:19 51°13.734 2°55.739 15.255 0.066942 0.361546 -2.871232
2007-01-22 08:23:23 51°13.738 2°55.734 15.229 0.066942 0.361546 -2.871232
2007-01-22 08:23:28 51°13.743 2°55.729 15.195 0.066942 0.361546 -2.871232
2007-01-22 08:23:33 51°13.748 2°55.723 15.1833 0.066942 0.361546 -2.871232
2007-01-22 08:23:39 51°13.754 2°55.715 15.1664 0.066942 0.361546 -2.871232
2007-01-22 08:23:43 51°13.759 2°55.709 15.1452 0.066942 0.361553 -2.871232
2007-01-22 08:23:48 51°13.765 2°55.702 15.1389 0.066942 0.361553 -2.871232
2007-01-22 08:23:53 51°13.772 2°55.695 15.1266 0.066942 0.36156 -2.871232
2007-01-22 08:23:58 51°13.779 2°55.687 15.117 0.066839 0.360994 -2.871232
2007-01-22 08:24:03 51°13.786 2°55.679 15.0954 0.066839 0.360994 -2.871232
2007-01-22 08:24:08 51°13.793 2°55.671 15.0623 0.066839 0.361001 -2.871232
2007-01-22 08:24:13 51°13.801 2°55.662 15.0373 0.066839 0.361008 -2.871232
2007-01-22 08:24:18 51°13.809 2°55.655 15.0229 0.066942 0.361588 -2.871232
2007-01-22 08:24:23 51°13.817 2°55.647 15.0199 0.066942 0.361595 -2.871232
2007-01-22 08:24:29 51°13.828 2°55.638 15.0209 0.066942 0.361602 -2.871232
2007-01-22 08:24:33 51°13.835 2°55.632 15.0381 0.066942 0.361602 -2.871232
2007-01-22 08:24:38 51°13.844 2°55.624 15.0413 0.066942 0.361609 -2.871232
2007-01-22 08:24:43 51°13.853 2°55.617 15.0224 0.066942 0.361616 -2.871232
2007-01-22 08:24:48 51°13.863 2°55.61 15.0563 0.066942 0.361623 -2.871232
2007-01-22 08:24:53 51°13.873 2°55.603 15.0671 0.066839 0.361057 -2.871232
2007-01-22 08:24:58 51°13.882 2°55.596 15.0718 0.066942 0.361637 -2.871232
2007-01-22 08:25:03 51°13.892 2°55.588 15.0655 0.066942 0.361637 -2.871232
2007-01-22 08:25:08 51°13.902 2°55.581 15.0704 0.066942 0.361644 -2.871232
2007-01-22 08:25:13 51°13.912 2°55.574 15.0479 0.066942 0.361659 -2.871232
2007-01-22 08:25:18 51°13.922 2°55.567 15.0876 0.066942 0.361659 -2.871232
2007-01-22 08:25:23 51°13.932 2°55.56 15.097 0.066942 0.361666 -2.871232
2007-01-22 08:25:28 51°13.942 2°55.553 15.0963 0.066839 0.361099 -2.871232
2007-01-22 08:25:33 51°13.953 2°55.546 15.1022 0.066839 0.361099 -2.871232
2007-01-22 08:25:39 51°13.965 2°55.537 15.1038 0.066839 0.361113 -2.871232
2007-01-22 08:25:43 51°13.973 2°55.532 15.1113 0.066942 0.361694 -2.871232
2007-01-22 08:25:48 51°13.983 2°55.525 15.1087 0.066839 0.361127 -2.871232
2007-01-22 08:25:53 51°13.994 2°55.517 15.0932 0.066839 0.361134 -2.871232
2007-01-22 08:25:59 51°14.006 2°55.509 15.097 0.066839 0.361141 -2.871232
2007-01-22 08:26:03 51°14.014 2°55.503 15.1136 0.066839 0.361141 -2.871232
2007-01-22 08:26:08 51°14.025 2°55.496 15.1276 0.066942 0.361722 -2.871232
2007-01-22 08:26:13 51°14.035 2°55.489 15.1188 0.066942 0.361729 -2.871232
2007-01-22 08:26:18 51°14.045 2°55.482 15.1312 0.066942 0.361736 -2.871232
2007-01-22 08:26:23 51°14.055 2°55.474 15.1471 0.066839 0.361162 -2.871232
2007-01-22 08:26:28 51°14.066 2°55.467 15.1655 0.066839 0.361169 -2.871232
2007-01-22 08:26:33 51°14.076 2°55.46 15.1514 0.066839 0.361169 -2.871232
2007-01-22 08:26:38 51°14.086 2°55.452 15.158 0.066942 0.361743 -2.871232
2007-01-22 08:26:43 51°14.096 2°55.444 15.1275 0.066942 0.36175 -2.871232
2007-01-22 08:26:49 51°14.108 2°55.435 15.1554 0.066942 0.361757 -2.871232
2007-01-22 08:26:53 51°14.116 2°55.428 15.1646 0.066942 0.361764 -2.871232
2007-01-22 08:26:59 51°14.128 2°55.419 15.2233 0.066839 0.361197 -2.871232
2007-01-22 08:27:03 51°14.136 2°55.413 15.2257 0.066839 0.361197 -2.871232
2007-01-22 08:27:09 51°14.148 2°55.402 15.2157 0.066839 0.361204 -2.871232
2007-01-22 08:27:13 51°14.156 2°55.395 15.2359 0.066839 0.361204 -2.871232
2007-01-22 08:27:18 51°14.166 2°55.386 15.1844 0.066839 0.361211 -2.871232
2007-01-22 08:27:23 51°14.176 2°55.378 15.2045 0.066942 0.361792 -2.871232
2007-01-22 08:27:28 51°14.185 2°55.368 15.2068 0.066942 0.361806 -2.871232
2007-01-22 08:27:33 51°14.195 2°55.359 15.2499 0.066942 0.361806 -2.871232
2007-01-22 08:27:38 51°14.204 2°55.349 15.3127 0.066839 0.361232 -2.871232
2007-01-22 08:27:43 51°14.214 2°55.339 15.3189 0.066839 0.361239 -2.871232
2007-01-22 08:27:48 51°14.223 2°55.328 15.2888 0.066839 0.361246 -2.871232
2007-01-22 08:27:53 51°14.232 2°55.317 15.283 0.066839 0.361253 -2.871232
2007-01-22 08:27:59 51°14.243 2°55.302 15.2693 0.066839 0.36126 -2.871232
2007-01-22 08:28:03 51°14.25 2°55.291 15.2263 0.066839 0.36126 -2.871232
2007-01-22 08:28:08 51°14.259 2°55.277 15.1707 0.066839 0.36126 -2.871232
2007-01-22 08:28:13 51°14.268 2°55.262 15.2114 0.066839 0.361267 -2.871232
2007-01-22 08:28:18 51°14.277 2°55.246 15.2038 0.066942 0.361862 -2.871232
2007-01-22 08:28:23 51°14.286 2°55.23 15.1415 0.066839 0.361302 -2.871232
2007-01-22 08:28:28 51°14.295 2°55.213 15.128 0.066839 0.361323 -2.871232
2007-01-22 08:28:33 51°14.304 2°55.195 15.107 0.066839 0.361323 -2.871232
2007-01-22 08:28:38 51°14.313 2°55.177 15.1332 0.066839 0.36133 -2.871232
2007-01-22 08:28:43 51°14.321 2°55.159 15.0842 0.066839 0.361337 -2.871232
2007-01-22 08:28:48 51°14.33 2°55.14 15.0627 0.066839 0.361337 -2.871232
2007-01-22 08:28:53 51°14.339 2°55.121 15.0103 0.066839 0.36133 -2.871232
2007-01-22 08:28:58 51°14.348 2°55.103 15.2111 0.066839 0.361323 -2.871232
2007-01-22 08:29:03 51°14.358 2°55.083 15.0769 0.066839 0.361323 -2.871232
2007-01-22 08:29:09 51°14.369 2°55.06 15.0048 0.066839 0.361316 -2.871232
2007-01-22 08:29:13 51°14.376 2°55.044 15.0378 0.066839 0.361316 -2.871232
2007-01-22 08:29:19 51°14.387 2°55.018 15.1194 0.066839 0.361309 -2.871232
2007-01-22 08:29:23 51°14.395 2°55.001 15.1101 0.066839 0.361309 -2.871232
2007-01-22 08:29:28 51°14.404 2°54.98 15.1425 0.066839 0.361316 -2.871232
2007-01-22 08:29:33 51°14.413 2°54.957 15.1636 0.066839 0.361316 -2.871232
2007-01-22 08:29:39 51°14.422 2°54.929 15.1562 0.066839 0.361323 -2.871232
2007-01-22 08:29:43 51°14.428 2°54.909 15.0263 0.066839 0.361337 -2.871232
2007-01-22 08:29:48 51°14.433 2°54.883 14.9496 0.066839 0.36133 -2.871232
2007-01-22 08:29:53 51°14.439 2°54.857 15.0955 0.066839 0.361316 -2.871232
2007-01-22 08:29:59 51°14.444 2°54.825 15.1 0.066839 0.361309 -2.871232
2007-01-22 08:30:03 51°14.447 2°54.803 15.193 0.066839 0.361309 -2.871232
2007-01-22 08:30:08 51°14.45 2°54.776 15.1435 0.066942 0.36189 -2.871232
2007-01-22 08:30:13 51°14.449 2°54.749 15.0201 0.066839 0.361344 -2.871232
2007-01-22 08:30:19 51°14.445 2°54.716 14.9656 0.066839 0.361365 -2.871232
2007-01-22 08:30:23 51°14.442 2°54.694 14.857 0.066839 0.361372 -2.871232
2007-01-22 08:30:28 51°14.438 2°54.667 14.9206 0.066839 0.361379 -2.871232
2007-01-22 08:30:33 51°14.434 2°54.639 14.9248 0.066839 0.361379 -2.871232
2007-01-22 08:30:38 51°14.43 2°54.61 14.9423 0.066839 0.361386 -2.871232
2007-01-22 08:30:43 51°14.425 2°54.581 14.9785 0.066839 0.361393 -2.871232
2007-01-22 08:30:48 51°14.42 2°54.552 14.9777 0.066839 0.361408 -2.871232
2007-01-22 08:30:53 51°14.415 2°54.523 14.9585 0.066839 0.361422 -2.871232
2007-01-22 08:30:58 51°14.41 2°54.494 14.9574 0.066839 0.361443 -2.871232
2007-01-22 08:31:03 51°14.404 2°54.465 14.8973 0.066839 0.361443 -2.871232
2007-01-22 08:31:08 51°14.398 2°54.436 15.0153 0.066839 0.361464 -2.871232
2007-01-22 08:31:13 51°14.392 2°54.407 14.8612 0.066839 0.361485 -2.871232
2007-01-22 08:31:18 51°14.386 2°54.378 14.9189 0.066839 0.361499 -2.871232
2007-01-22 08:31:23 51°14.379 2°54.35 14.9162 0.066839 0.361513 -2.871232
2007-01-22 08:31:28 51°14.373 2°54.321 14.8713 0.066942 0.362101 -2.871232
2007-01-22 08:31:33 51°14.365 2°54.293 14.9669 0.066942 0.362101 -2.871232
2007-01-22 08:31:39 51°14.356 2°54.259 14.9031 0.066736 0.36096 -2.871232
2007-01-22 08:31:43 51°14.35 2°54.237 14.8353 0.066839 0.361541 -2.871232
2007-01-22 08:31:48 51°14.342 2°54.209 14.8947 0.066839 0.361541 -2.871232
2007-01-22 08:31:53 51°14.334 2°54.181 14.8838 0.066839 0.361534 -2.871232
2007-01-22 08:31:59 51°14.325 2°54.147 14.819 0.066839 0.361534 -2.871232
2007-01-22 08:32:03 51°14.318 2°54.124 14.9031 0.066839 0.361534 -2.871232
2007-01-22 08:32:08 51°14.311 2°54.096 14.8789 0.066839 0.361534 -2.871232
2007-01-22 08:32:13 51°14.304 2°54.067 14.9228 0.066839 0.361534 -2.871232
2007-01-22 08:32:19 51°14.296 2°54.032 14.8903 0.066839 0.361534 -2.871232
2007-01-22 08:32:23 51°14.29 2°54.009 14.8169 0.066839 0.361527 -2.871232
2007-01-22 08:32:28 51°14.283 2°53.98 14.9086 0.066839 0.361527 -2.871232
2007-01-22 08:32:33 51°14.277 2°53.95 14.8922 0.066839 0.361527 -2.871232
2007-01-22 08:32:38 51°14.27 2°53.921 14.8835 0.066839 0.36152 -2.871232
2007-01-22 08:32:43 51°14.263 2°53.892 14.9146 0.066839 0.36152 -2.871232
2007-01-22 08:32:48 51°14.257 2°53.862 14.8718 0.066839 0.361534 -2.871232
2007-01-22 08:32:53 51°14.25 2°53.833 14.9609 0.066839 0.361541 -2.871232
2007-01-22 08:32:58 51°14.242 2°53.804 14.9494 0.066839 0.361555 -2.871232
2007-01-22 08:33:03 51°14.235 2°53.776 14.9112 0.066839 0.361555 -2.871232
2007-01-22 08:33:09 51°14.224 2°53.742 14.936 0.066736 0.361002 -2.871232
2007-01-22 08:33:13 51°14.216 2°53.72 14.9333 0.066839 0.361583 -2.871232
2007-01-22 08:33:19 51°14.205 2°53.688 14.8646 0.066736 0.36103 -2.871232
2007-01-22 08:33:23 51°14.197 2°53.666 14.8763 0.066839 0.361611 -2.871232
2007-01-22 08:33:28 51°14.186 2°53.639 14.8947 0.066839 0.361618 -2.871232
2007-01-22 08:33:32 51°14.178 2°53.617 14.8291 0.066839 0.361618 -2.871232
2007-01-22 08:33:38 51°14.165 2°53.585 14.8984 0.066839 0.361625 -2.871232
2007-01-22 08:33:43 51°14.155 2°53.559 14.8251 0.066839 0.361632 -2.871232
2007-01-22 08:33:48 51°14.145 2°53.532 14.8987 0.066839 0.361632 -2.871232
2007-01-22 08:33:53 51°14.135 2°53.504 14.8174 0.066839 0.361639 -2.871232
2007-01-22 08:33:58 51°14.125 2°53.476 11.127 0.081453 0.444845 -2.871232
2007-01-22 08:34:03 51°14.116 2°53.448 10.4964 0.081453 0.444845 -2.871232
2007-01-22 08:34:08 51°14.106 2°53.421 9.9206 0.109858 0.608789 -2.871232
2007-01-22 08:34:13 51°14.097 2°53.392 9.7255 0.257756 1.488316 -2.871232
2007-01-22 08:34:18 51°14.088 2°53.364 9.6401 1.217143 7.942508 -2.871232
2007-01-22 08:34:23 51°14.078 2°53.337 9.5137 1.563478 10.861923 -2.871232
2007-01-22 08:34:28 51°14.069 2°53.309 9.4684 2.277709 17.247353 -2.871232
2007-01-22 08:34:33 51°14.059 2°53.281 9.4218 2.277709 17.247353 -2.871232
2007-01-22 08:34:38 51°14.048 2°53.254 9.4036 3.117777 25.352565 -2.871232
2007-01-22 08:34:43 51°14.038 2°53.226 9.4127 3.362051 28.210325 -2.871232
2007-01-22 08:34:48 51°14.028 2°53.198 9.364 3.459076 29.624727 -2.871232
2007-01-22 08:34:53 51°14.017 2°53.172 9.3782 3.502782 30.328871 -2.871232
2007-01-22 08:34:58 51°14.007 2°53.144 9.3857 3.529816 30.808579 -2.871232
2007-01-22 08:35:03 51°13.996 2°53.117 9.3941 3.529816 30.808579 -2.871232
2007-01-22 08:35:08 51°13.986 2°53.089 9.3358 3.502476 30.671821 -2.871232
2007-01-22 08:35:13 51°13.977 2°53.061 9.3619 3.570731 31.407734 -2.871232
2007-01-22 08:35:18 51°13.966 2°53.033 9.3301 3.573632 31.49737 -2.871232
2007-01-22 08:35:23 51°13.958 2°53.004 9.3199 3.587305 31.676588 -2.871232
2007-01-22 08:35:28 51°13.948 2°52.976 9.3322 3.580573 31.630306 -2.871232
2007-01-22 08:35:33 51°13.939 2°52.946 9.3401 3.580573 31.630306 -2.871232
2007-01-22 08:35:38 51°13.93 2°52.917 9.3194 3.574358 31.5866 -2.871232
2007-01-22 08:35:43 51°13.922 2°52.888 9.318 3.584302 31.709877 -2.871232
2007-01-22 08:35:48 51°13.913 2°52.859 9.3142 3.59031 31.788851 -2.871232
2007-01-22 08:35:53 51°13.903 2°52.831 9.3119 3.593832 31.847623 -2.871232
2007-01-22 08:35:57 51°13.896 2°52.807 9.3113 3.597562 31.895185 -2.871232
2007-01-22 08:36:03 51°13.883 2°52.774 9.3069 3.597562 31.895185 -2.871232
2007-01-22 08:36:08 51°13.874 2°52.746 9.3061 3.592486 31.856008 -2.871232
2007-01-22 08:36:13 51°13.863 2°52.718 9.2958 3.600048 31.939723 -2.871232
2007-01-22 08:36:17 51°13.855 2°52.696 9.2803 3.603674 31.979658 -2.871232
2007-01-22 08:36:23 51°13.842 2°52.663 9.2864 3.599841 31.952727 -2.871232
2007-01-22 08:36:28 51°13.831 2°52.635 9.2809 3.606885 32.033125 -2.871232
2007-01-22 08:36:34 51°13.819 2°52.602 9.2812 3.606885 32.033125 -2.871232
2007-01-22 08:36:39 51°13.808 2°52.574 9.2895 3.611443 32.084003 -2.871232
2007-01-22 08:36:44 51°13.798 2°52.546 9.2893 3.614137 32.120697 -2.871232
2007-01-22 08:36:48 51°13.79 2°52.524 9.2927 3.616623 32.153684 -2.871232
2007-01-22 08:36:53 51°13.78 2°52.495 9.293 3.616208 32.153802 -2.871232
2007-01-22 08:36:58 51°13.77 2°52.467 9.3051 3.617452 32.171992 -2.871232
2007-01-22 08:37:03 51°13.76 2°52.439 9.2939 3.617452 32.171992 -2.871232
2007-01-22 08:37:08 51°13.749 2°52.411 9.2936 3.619938 32.201638 -2.871232
2007-01-22 08:37:13 51°13.739 2°52.382 9.2903 3.621077 32.215441 -2.871232
2007-01-22 08:37:18 51°13.729 2°52.354 9.2858 3.619731 32.202123 -2.871232
2007-01-22 08:37:23 51°13.719 2°52.326 9.2917 3.623564 32.242569 -2.871232
2007-01-22 08:37:28 51°13.708 2°52.298 9.2846 3.622528 32.231476 -2.871232
2007-01-22 08:37:33 51°13.698 2°52.27 9.2899 3.622528 32.231476 -2.871232
2007-01-22 08:37:38 51°13.688 2°52.242 9.2989 3.621285 32.220025 -2.871232
2007-01-22 08:37:43 51°13.678 2°52.213 9.2838 3.62346 32.244081 -2.871232
2007-01-22 08:37:48 51°13.667 2°52.185 9.2801 3.626464 32.27719 -2.871232
2007-01-22 08:37:53 51°13.657 2°52.157 9.2753 3.621492 32.233064 -2.871232
2007-01-22 08:37:58 51°13.647 2°52.129 9.2719 3.624496 32.267871 -2.871232
2007-01-22 08:38:02 51°13.639 2°52.107 9.2747 3.624496 32.267871 -2.871232
2007-01-22 08:38:08 51°13.626 2°52.073 9.2746 3.626568 32.288378 -2.871232
2007-01-22 08:38:13 51°13.616 2°52.045 9.2699 3.62315 32.254542 -2.871232
2007-01-22 08:38:18 51°13.605 2°52.017 9.2659 3.623668 32.263901 -2.871232
2007-01-22 08:38:22 51°13.597 2°51.995 9.2641 3.624704 32.280086 -2.871232
2007-01-22 08:38:28 51°13.585 2°51.961 9.2598 3.619213 32.230808 -2.871232
2007-01-22 08:38:33 51°13.574 2°51.933 9.2638 3.619213 32.230808 -2.871232
2007-01-22 08:38:38 51°13.564 2°51.904 9.2529 3.62574 32.295429 -2.871232
2007-01-22 08:38:42 51°13.556 2°51.882 9.252 3.626258 32.303102 -2.871232
2007-01-22 08:38:48 51°13.544 2°51.848 9.2549 3.627086 32.315553 -2.871232
2007-01-22 08:38:53 51°13.534 2°51.819 9.2509 3.627708 32.325105 -2.871232
2007-01-22 08:38:58 51°13.523 2°51.792 9.2541 3.623979 32.291554 -2.871232
2007-01-22 08:39:02 51°13.516 2°51.769 9.2364 3.623979 32.291554 -2.871232
2007-01-22 08:39:09 51°13.501 2°51.729 9.2436 3.627294 32.327792 -2.871232
2007-01-22 08:39:13 51°13.493 2°51.707 9.2344 3.6246 32.309591 -2.871232
2007-01-22 08:39:19 51°13.481 2°51.673 9.2336 3.623254 32.297942 -2.871232
2007-01-22 08:39:24 51°13.47 2°51.645 9.2325 3.623875 32.307498 -2.871232
2007-01-22 08:39:29 51°13.46 2°51.616 9.2254 3.625222 32.323395 -2.871232
2007-01-22 08:39:34 51°13.45 2°51.588 9.2172 3.625222 32.323395 -2.871232
2007-01-22 08:39:38 51°13.442 2°51.565 9.2124 3.622943 32.305049 -2.871232
2007-01-22 08:39:43 51°13.432 2°51.537 9.2112 3.626258 32.342164 -2.871232
2007-01-22 08:39:49 51°13.42 2°51.503 9.2014 3.625015 32.333237 -2.871232
2007-01-22 08:39:53 51°13.412 2°51.48 9.2015 3.625326 32.340571 -2.871232
2007-01-22 08:39:59 51°13.4 2°51.447 9.1968 3.624394 32.335575 -2.871232
2007-01-22 08:40:03 51°13.391 2°51.424 9.2015 3.624394 32.335575 -2.871232
2007-01-22 08:40:09 51°13.379 2°51.39 9.1972 3.62688 32.367899 -2.871232
2007-01-22 08:40:13 51°13.371 2°51.368 9.1884 3.62543 32.359467 -2.871232
2007-01-22 08:40:19 51°13.359 2°51.334 9.1884 3.626051 32.371597 -2.871232
2007-01-22 08:40:23 51°13.35 2°51.311 9.1838 3.62139 32.332138 -2.871232
2007-01-22 08:40:29 51°13.338 2°51.277 9.1853 3.624083 32.362281 -2.871232
2007-01-22 08:40:34 51°13.328 2°51.249 9.1729 3.624083 32.362281 -2.871232
2007-01-22 08:40:38 51°13.32 2°51.226 9.1792 3.614553 32.270229 -2.871232
2007-01-22 08:40:43 51°13.31 2°51.198 9.1739 3.613621 32.263524 -2.871232
2007-01-22 08:40:49 51°13.298 2°51.164 9.1772 3.623773 32.369421 -2.871232
2007-01-22 08:40:54 51°13.289 2°51.135 9.1729 3.622529 32.360484 -2.871232
2007-01-22 08:40:59 51°13.278 2°51.107 9.1684 3.616728 32.30713 -2.871232
2007-01-22 08:41:03 51°13.27 2°51.084 9.1683 3.616728 32.30713 -2.871232
2007-01-22 08:41:09 51°13.258 2°51.05 9.1595 3.621804 32.3601 -2.871232
2007-01-22 08:41:14 51°13.248 2°51.022 9.1577 3.615693 32.303649 -2.871232
2007-01-22 08:41:19 51°13.237 2°50.994 9.1572 3.621183 32.360745 -2.871232
2007-01-22 08:41:23 51°13.229 2°50.971 9.158 3.618697 32.339453 -2.871232
2007-01-22 08:41:29 51°13.217 2°50.937 9.1599 3.621079 32.367391 -2.871232
2007-01-22 08:41:33 51°13.209 2°50.914 9.1624 3.621079 32.367391 -2.871232
2007-01-22 08:41:39 51°13.197 2°50.88 9.1652 3.621183 32.37098 -2.871232
2007-01-22 08:41:44 51°13.187 2°50.852 9.1651 3.620769 32.37198 -2.871232
2007-01-22 08:41:49 51°13.177 2°50.823 9.1587 3.619215 32.359947 -2.871232
2007-01-22 08:41:53 51°13.169 2°50.8 9.1562 3.623255 32.40182 -2.871232
2007-01-22 08:41:58 51°13.159 2°50.772 9.1544 3.624498 32.415034 -2.871232
2007-01-22 08:42:03 51°13.15 2°50.743 9.1467 3.624498 32.415034 -2.871232
2007-01-22 08:42:09 51°13.138 2°50.708 9.1493 3.620769 32.377955 -2.871232
2007-01-22 08:42:13 51°13.13 2°50.686 9.156 3.620976 32.378307 -2.871232
2007-01-22 08:42:19 51°13.118 2°50.651 9.1536 3.623773 32.405261 -2.871232
2007-01-22 08:42:23 51°13.11 2°50.628 9.1516 3.622219 32.394082 -2.871232
2007-01-22 08:42:29 51°13.097 2°50.594 9.1471 3.623255 32.407801 -2.871232
2007-01-22 08:42:33 51°13.09 2°50.571 9.1555 3.623255 32.407801 -2.871232
2007-01-22 08:42:39 51°13.077 2°50.537 9.1551 3.620458 32.384257 -2.871232
2007-01-22 08:42:43 51°13.07 2°50.514 9.1436 3.619837 32.379784 -2.871232
2007-01-22 08:42:49 51°13.057 2°50.48 9.15 3.623773 32.418936 -2.871232
2007-01-22 08:42:54 51°13.047 2°50.451 9.1413 3.624809 32.42924 -2.871232
2007-01-22 08:42:59 51°13.037 2°50.423 9.1339 3.624291 32.426654 -2.871232
2007-01-22 08:43:03 51°13.029 2°50.4 9.1312 3.624291 32.426654 -2.871232
2007-01-22 08:43:09 51°13.016 2°50.366 9.1378 3.626985 32.453448 -2.871232
2007-01-22 08:43:14 51°13.006 2°50.338 9.127 3.626674 32.451212 -2.871232
2007-01-22 08:43:19 51°12.996 2°50.31 9.1274 3.621805 32.406197 -2.871232
2007-01-22 08:43:23 51°12.987 2°50.287 9.1299 3.627606 32.466483 -2.871232
2007-01-22 08:43:29 51°12.975 2°50.253 9.1262 3.626881 32.464407 -2.871232
2007-01-22 08:43:34 51°12.965 2°50.225 9.1238 3.623359 32.432778 -2.871232
2007-01-22 08:43:39 51°12.955 2°50.196 9.1205 3.623359 32.432778 -2.871232
2007-01-22 08:43:43 51°12.947 2°50.174 9.1142 3.627088 32.472467 -2.871232
2007-01-22 08:43:49 51°12.935 2°50.139 9.1116 3.62512 32.455444 -2.871232
2007-01-22 08:43:54 51°12.925 2°50.11 9.1138 3.625535 32.46214 -2.871232
2007-01-22 08:43:59 51°12.915 2°50.081 9.1098 3.626985 32.478293 -2.871232
2007-01-22 08:44:03 51°12.908 2°50.058 9.1006 3.626985 32.478293 -2.871232
2007-01-22 08:44:09 51°12.896 2°50.024 9.0997 3.622738 32.438578 -2.871232
2007-01-22 08:44:13 51°12.888 2°50 9.0852 3.622738 32.442004 -2.871232
2007-01-22 08:44:19 51°12.876 2°49.966 9.0833 3.621287 32.431846 -2.871232
2007-01-22 08:44:24 51°12.867 2°49.937 9.0849 3.62222 32.443699 -2.871232
2007-01-22 08:44:29 51°12.856 2°49.909 9.0788 3.625535 32.481003 -2.871232
2007-01-22 08:44:33 51°12.848 2°49.886 9.0819 3.625535 32.481003 -2.871232
2007-01-22 08:44:38 51°12.839 2°49.857 9.0866 3.607199 32.303549 -2.871232
2007-01-22 08:44:43 51°12.829 2°49.828 9.0928 3.615487 32.392052 -2.871232
2007-01-22 08:44:49 51°12.818 2°49.793 9.095 3.620873 32.452572 -2.871232
2007-01-22 08:44:53 51°12.811 2°49.769 9.1006 3.622842 32.47562 -2.871232
2007-01-22 08:44:59 51°12.8 2°49.734 9.1024 3.617041 32.421236 -2.871232
2007-01-22 08:45:03 51°12.793 2°49.71 9.1049 3.617041 32.421236 -2.871232
2007-01-22 08:45:09 51°12.782 2°49.675 9.1083 3.619838 32.449968 -2.871232
2007-01-22 08:45:13 51°12.775 2°49.651 9.1128 3.620666 32.455654 -2.871232
2007-01-22 08:45:19 51°12.764 2°49.616 9.1118 3.621081 32.45721 -2.871232
2007-01-22 08:45:23 51°12.756 2°49.593 9.1147 3.620045 32.443457 -2.871232
2007-01-22 08:45:29 51°12.746 2°49.557 9.1133 3.621495 32.455335 -2.871232
2007-01-22 08:45:34 51°12.736 2°49.528 9.1175 3.621495 32.455335 -2.871232
2007-01-22 08:45:39 51°12.727 2°49.499 9.1247 3.62367 32.474438 -2.871232
2007-01-22 08:45:43 51°12.72 2°49.476 9.1221 3.626674 32.500939 -2.871232
2007-01-22 08:45:49 51°12.709 2°49.44 9.1223 3.625017 32.481849 -2.871232
2007-01-22 08:45:53 51°12.702 2°49.417 9.1291 3.626364 32.49355 -2.871232
2007-01-22 08:45:59 51°12.69 2°49.382 9.1329 3.626985 32.498884 -2.871232
2007-01-22 08:46:04 51°12.682 2°49.353 9.1369 3.626985 32.498884 -2.871232
2007-01-22 08:46:09 51°12.673 2°49.323 9.1409 3.617144 32.398289 -2.871232
2007-01-22 08:46:13 51°12.666 2°49.299 9.1403 3.62222 32.445413 -2.871232
2007-01-22 08:46:19 51°12.656 2°49.263 9.1416 3.63144 32.536393 -2.871232
2007-01-22 08:46:23 51°12.65 2°49.239 9.1443 3.614968 32.369788 -2.871232
2007-01-22 08:46:29 51°12.64 2°49.203 9.1432 3.627089 32.487043 -2.871232
2007-01-22 08:46:33 51°12.633 2°49.179 9.1483 3.627089 32.487043 -2.871232
2007-01-22 08:46:39 51°12.623 2°49.142 9.1468 3.621287 32.42414 -2.871232
2007-01-22 08:46:43 51°12.617 2°49.118 9.1503 3.629989 32.507349 -2.871232
2007-01-22 08:46:49 51°12.607 2°49.082 9.1541 3.630093 32.506664 -2.871232
2007-01-22 08:46:53 51°12.6 2°49.058 9.1549 3.632268 32.526609 -2.871232
2007-01-22 08:46:59 51°12.591 2°49.022 9.1585 3.629885 32.502027 -2.871232
2007-01-22 08:47:03 51°12.584 2°48.998 9.1623 3.629471 32.496186 -2.871232
2007-01-22 08:47:09 51°12.574 2°48.962 9.1619 3.629471 32.496186 -2.871232
2007-01-22 08:47:14 51°12.565 2°48.932 9.1624 3.63434 32.543805 -2.871232
2007-01-22 08:47:18 51°12.559 2°48.908 9.1612 3.633926 32.537103 -2.871232
2007-01-22 08:47:23 51°12.551 2°48.878 9.1627 3.632164 32.516995 -2.871232
2007-01-22 08:47:29 51°12.541 2°48.841 9.1581 3.636826 32.560829 -2.871232
2007-01-22 08:47:34 51°12.533 2°48.811 9.1594 3.636826 32.560829 -2.871232
2007-01-22 08:47:39 51°12.525 2°48.781 9.1632 3.630818 32.498443 -2.871232
2007-01-22 08:47:43 51°12.519 2°48.756 9.1666 3.635376 32.542096 -2.871232
2007-01-22 08:47:49 51°12.509 2°48.72 9.1686 3.629782 32.485562 -2.871232
2007-01-22 08:47:54 51°12.501 2°48.69 9.1718 3.621183 32.400014 -2.871232
2007-01-22 08:47:59 51°12.492 2°48.659 9.1789 3.632061 32.508243 -2.871232
2007-01-22 08:48:03 51°12.486 2°48.635 9.1891 3.632061 32.508243 -2.871232
2007-01-22 08:48:09 51°12.476 2°48.599 9.1992 3.635169 32.540034 -2.871232
2007-01-22 08:48:14 51°12.468 2°48.568 9.2101 3.639623 32.58352 -2.871232
2007-01-22 08:48:19 51°12.461 2°48.538 9.2174 3.629782 32.483848 -2.871232
2007-01-22 08:48:23 51°12.454 2°48.514 9.2243 3.640037 32.582487 -2.871232
2007-01-22 08:48:29 51°12.445 2°48.477 9.2293 3.637344 32.550526 -2.871232
2007-01-22 08:48:33 51°12.438 2°48.453 9.2342 3.637344 32.550526 -2.871232
2007-01-22 08:48:39 51°12.428 2°48.416 9.2339 3.639519 32.565305 -2.871232
2007-01-22 08:48:43 51°12.422 2°48.392 9.2335 3.639726 32.557924 -2.871232
2007-01-22 08:48:49 51°12.412 2°48.356 9.2334 3.643249 32.582657 -2.871232
2007-01-22 08:48:54 51°12.404 2°48.325 9.2373 3.635375 32.495802 -2.871232
2007-01-22 08:48:58 51°12.398 2°48.301 9.2413 3.641694 32.551762 -2.871232
2007-01-22 08:49:04 51°12.388 2°48.264 9.244 3.641694 32.551762 -2.871232
2007-01-22 08:49:09 51°12.38 2°48.234 9.2441 3.640969 32.539412 -2.871232
2007-01-22 08:49:14 51°12.372 2°48.203 9.2408 3.640969 32.536841 -2.871232
2007-01-22 08:49:18 51°12.366 2°48.179 9.2357 3.643663 32.561895 -2.871232
2007-01-22 08:49:23 51°12.358 2°48.148 9.2248 3.645631 32.579742 -2.871232
2007-01-22 08:49:29 51°12.348 2°48.111 9.2166 3.646045 32.58043 -2.871232
2007-01-22 08:49:33 51°12.342 2°48.087 9.2062 3.646045 32.58043 -2.871232
2007-01-22 08:49:39 51°12.332 2°48.051 9.1928 3.646045 32.576999 -2.871232
2007-01-22 08:49:43 51°12.325 2°48.026 9.1878 3.64936 32.609084 -2.871232
2007-01-22 08:49:49 51°12.316 2°47.99 9.181 3.645838 32.575798 -2.871232
2007-01-22 08:49:54 51°12.308 2°47.96 9.1754 3.64532 32.574938 -2.871232
2007-01-22 08:49:59 51°12.3 2°47.929 9.1735 3.64273 32.557773 -2.871232
2007-01-22 08:50:03 51°12.293 2°47.905 9.1766 3.64273 32.557773 -2.871232
2007-01-22 08:50:09 51°12.283 2°47.868 9.1802 3.644595 32.585748 -2.871232
2007-01-22 08:50:14 51°12.275 2°47.838 9.1817 3.641487 32.565142 -2.871232
2007-01-22 08:50:18 51°12.269 2°47.814 9.1833 3.643559 32.593478 -2.871232
2007-01-22 08:50:23 51°12.261 2°47.784 9.1926 3.638483 32.551564 -2.871232
2007-01-22 08:50:29 51°12.251 2°47.747 9.2024 3.632993 32.502088 -2.871232
2007-01-22 08:50:34 51°12.243 2°47.717 9.2157 3.635168 32.525446 -2.871232
2007-01-22 08:50:39 51°12.235 2°47.687 9.2254 3.635168 32.525446 -2.871232
2007-01-22 08:50:43 51°12.228 2°47.662 9.2339 3.637758 32.550357 -2.871232
2007-01-22 08:50:49 51°12.218 2°47.626 9.2421 3.633096 32.503975 -2.871232
2007-01-22 08:50:54 51°12.21 2°47.595 9.2484 3.639519 32.563588 -2.871232
2007-01-22 08:50:59 51°12.202 2°47.565 9.2524 3.637758 32.538345 -2.871232
2007-01-22 08:51:03 51°12.196 2°47.54 9.2548 3.637758 32.538345 -2.871232
2007-01-22 08:51:09 51°12.186 2°47.504 9.2538 3.640555 32.55587 -2.871232
2007-01-22 08:51:13 51°12.18 2°47.479 9.2488 3.642938 32.570125 -2.871232
2007-01-22 08:51:18 51°12.172 2°47.449 9.2343 3.641902 32.550393 -2.871232
2007-01-22 08:51:23 51°12.164 2°47.418 9.2202 3.643041 32.554004 -2.871232
2007-01-22 08:51:29 51°12.154 2°47.382 9.2012 3.642523 32.541145 -2.871232
2007-01-22 08:51:33 51°12.148 2°47.357 9.1879 3.642523 32.541145 -2.871232
2007-01-22 08:51:39 51°12.138 2°47.321 9.174 3.64387 32.549385 -2.871232
2007-01-22 08:51:44 51°12.13 2°47.29 9.1714 3.645838 32.568939 -2.871232
2007-01-22 08:51:49 51°12.122 2°47.259 9.1752 3.641176 32.52691 -2.871232
2007-01-22 08:51:54 51°12.114 2°47.229 9.1865 3.647289 32.598792 -2.871232
2007-01-22 08:51:58 51°12.107 2°47.204 9.1959 3.643559 32.574589 -2.871232
2007-01-22 08:52:03 51°12.099 2°47.174 9.2111 3.643559 32.574589 -2.871232
2007-01-22 08:52:09 51°12.09 2°47.137 9.2243 3.641073 32.563595 -2.871232
2007-01-22 08:52:14 51°12.082 2°47.106 9.2324 3.637447 32.5404 -2.871232
2007-01-22 08:52:19 51°12.074 2°47.075 9.2245 3.639934 32.572864 -2.871232
2007-01-22 08:52:23 51°12.068 2°47.051 9.2045 3.639934 32.571146 -2.871232
2007-01-22 08:52:29 51°12.058 2°47.014 9.1849 3.639519 32.561012 -2.871232
2007-01-22 08:52:33 51°12.052 2°46.989 9.1662 3.636411 32.520663 -2.871232
2007-01-22 08:52:39 51°12.043 2°46.952 9.14 3.636411 32.520663 -2.871232
2007-01-22 08:52:44 51°12.035 2°46.922 9.1248 3.641384 32.558106 -2.871232
2007-01-22 08:52:49 51°12.027 2°46.891 9.1097 3.644284 32.580083 -2.871232
2007-01-22 08:52:53 51°12.021 2°46.866 9.0962 3.644077 32.582314 -2.871232
2007-01-22 08:52:59 51°12.011 2°46.829 9.0851 3.629885 32.456624 -2.871232
2007-01-22 08:53:03 51°12.004 2°46.805 9.0863 3.629885 32.456624 -2.871232
2007-01-22 08:53:09 51°11.995 2°46.768 9.0748 3.639727 32.569084 -2.871232
2007-01-22 08:53:13 51°11.988 2°46.744 9.0825 3.629678 32.490531 -2.871232
2007-01-22 08:53:19 51°11.979 2°46.707 9.101 3.634651 32.56065 -2.871232
2007-01-22 08:53:23 51°11.972 2°46.683 9.1201 3.631958 32.55101 -2.871232
2007-01-22 08:53:29 51°11.962 2°46.646 9.1447 3.632372 32.568907 -2.871232
2007-01-22 08:53:33 51°11.956 2°46.621 9.1625 3.632372 32.568907 -2.871232
2007-01-22 08:53:39 51°11.946 2°46.585 9.1777 3.626675 32.521562 -2.871232
2007-01-22 08:53:43 51°11.94 2°46.56 9.189 3.627296 32.53378 -2.871232
2007-01-22 08:53:49 51°11.93 2°46.523 9.1937 3.628125 32.540324 -2.871232
2007-01-22 08:53:53 51°11.923 2°46.499 9.2007 3.627814 32.526044 -2.871232
2007-01-22 08:53:59 51°11.914 2°46.463 9.211 3.626571 32.496473 -2.871232
2007-01-22 08:54:03 51°11.907 2°46.438 9.2229 3.626571 32.496473 -2.871232
2007-01-22 08:54:09 51°11.898 2°46.401 9.2329 3.63175 32.528321 -2.871232
2007-01-22 08:54:14 51°11.889 2°46.37 9.2426 3.640038 32.594525 -2.871232
2007-01-22 08:54:19 51°11.881 2°46.34 9.2475 3.63724 32.553788 -2.871232
2007-01-22 08:54:23 51°11.875 2°46.315 9.2545 3.638069 32.552591 -2.871232
2007-01-22 08:54:29 51°11.865 2°46.278 9.2599 3.640452 32.566854 -2.871232
2007-01-22 08:54:34 51°11.857 2°46.248 9.2634 3.638276 32.534063 -2.871232
2007-01-22 08:54:39 51°11.849 2°46.217 9.2669 3.638276 32.534063 -2.871232
2007-01-22 08:54:43 51°11.843 2°46.192 9.2691 3.641902 32.558967 -2.871232
2007-01-22 08:54:49 51°11.833 2°46.155 9.2715 3.642937 32.558975 -2.871232
2007-01-22 08:54:54 51°11.825 2°46.124 9.2735 3.638483 32.506143 -2.871232
2007-01-22 08:54:59 51°11.817 2°46.093 9.2744 3.643352 32.546809 -2.871232
2007-01-22 08:55:03 51°11.811 2°46.069 9.274 3.643352 32.546809 -2.871232
2007-01-22 08:55:09 51°11.801 2°46.032 9.2769 3.645631 32.563453 -2.871232